                ,  0.671,  0.819,  0.966,  1.114,  1.262,  1.410,  1.558,  1.705,  1.853,  2.001,  2.149,  2.297,  2.445,  2.592,  2.740,  2.888,  3.036,  3.184,  3.331,  3.479,  3.627,  3.775,  3.923,  4.070,  4.218,  4.366,  4.514,  4.662,  4.809,  4.957,  5.105,  5.253,  5.401,  5.549,  5.696,  5.844,  5.992,  6.140,  6.288,  6.435,  6.583,  6.731,  6.879,  7.027,  7.174,  7.322,  7.470,  7.618,  7.766,  7.914,  8.061,  8.209,  8.357,  8.505,  8.653,  8.800,  8.948,  9.096,  9.244,  9.392,  9.539,  9.687,  9.835
2005/10/09 00:00,  999.0,    0.6,    1.8,    0.1,  999.0,    1.4,    3.8,    7.6,    8.5,    8.2,    8.5,    9.0,    9.0,   10.3,   10.0,    9.9,   10.8,   12.4,   12.4,   10.9,   10.7,   11.2,   10.9,   10.1,   11.3,   12.4,   14.2,   16.1,   18.8,  999.0,  999.0,  999.0,  999.0,  999.0,  999.0,  999.0,   55.3,   55.2,   55.2,   55.3,   55.2,   55.2,   55.3,   55.3,   55.3,   55.4,   55.5,   55.4,   55.3,   55.5,   55.5,   55.3,   55.3,   55.7,   55.3,   55.7,   55.8,   55.7,  999.0,  999.0,   55.2,  999.0,   56.2
2005/10/09 00:10,  999.0,    2.0,    3.2,    2.3,    2.8,    2.0,    1.3,    0.1,    1.6,    0.7,   -0.2,   -1.5,   -1.2,    0.1,  999.0,  999.0,  999.0,  999.0,  999.0,  999.0,  999.0,    0.8,    6.0,  999.0,   -2.8,  999.0,  999.0,  999.0,  999.0,  999.0,  999.0,  999.0,  999.0,  -55.2,  -55.2,  -55.2,  -55.2,  -33.1,  -33.1,  -55.2,  -27.7,  -27.6,  -40.5,  -55.3,  -55.3,  -33.2,  -33.0,  -55.3,  -27.8,  -38.8,  -27.7,  -36.9,  -14.0,  -18.6,  999.0,  999.0,  999.0,  999.0,   -0.0,  999.0,  999.0,  999.0,  999.0
2005/10/09 00:20,  999.0,  999.0,    2.0,    3.5,    3.3,    2.0,    0.5,   -1.3,   -2.4,   -3.6,   -4.7,   -5.1,   -6.1,   -7.2,   -8.0,   -9.4,   -9.8,  -10.2,  -10.2,  -10.3,  -10.7,  -11.3,  -11.5,  -11.7,  -10.9,  -12.7,  -13.2,  999.0,  999.0,  999.0,  999.0,  999.0,  999.0,  999.0,  -55.3,  -55.2,  -55.2,  -55.4,  -55.3,  -55.2,  -55.3,  -55.3,  -55.3,  -55.3,  -55.1,  -55.3,  -55.3,  -55.4,  -55.4,  -55.4,  -55.5,  -55.7,  -55.5,  -55.3,  -55.6,  -55.7,  -56.5,  -54.8,  999.0,  999.0,  999.0,  999.0,  999.0
2005/10/09 00:30,  999.0,  999.0,    4.7,  999.0,    2.8,    1.2,    0.4,   -1.1,   -1.9,   -3.8,   -4.1,   -4.5,   -6.5,   -7.6,   -8.6,   -9.8,  -10.0,  -10.4,  -10.8,  -10.8,  -11.2,  -11.6,  -11.4,  -11.3,  -11.6,  -11.9,  -12.9,  -13.6,  999.0,  999.0,  999.0,  999.0,  999.0,  999.0,  999.0,  -55.2,  -55.2,  -55.3,  -55.2,  -55.3,  -55.4,  -55.4,  -55.3,  -55.3,  -55.3,  -55.3,  -55.3,  -55.4,  -55.4,  -55.5,  -55.3,  -55.3,  -55.5,  999.0,  -55.6,  -55.6,  -55.6,  -55.3,  -55.9,  999.0,  999.0,  999.0,  999.0
2005/10/09 00:40,  999.0,  999.0,    3.4,    3.1,    4.0,    3.0,    0.5,  999.0,   -0.1,   -3.2,   -4.8,   -5.0,   -5.1,   -7.6,   -7.8,   -9.6,   -9.9,  -10.6,  -10.8,  -11.6,  -12.5,  -12.3,  -12.5,  -12.3,  -12.1,  -12.0,  -14.0,  -14.9,  999.0,  999.0,  999.0,  999.0,  999.0,  999.0,  999.0,  999.0,  999.0,  -55.2,  -55.1,  -55.2,  -55.1,  -55.2,  -55.2,  -55.2,  -55.1,  -55.3,  -55.2,  -55.2,  -55.3,  -55.4,  -55.2,  -55.3,  -55.2,  999.0,  -55.1,  -55.4,  999.0,  -55.8,  999.0,  999.0,  999.0,  999.0,  999.0
2005/10/09 00:50,  999.0,  999.0,    4.3,    5.7,    4.5,    3.1,    1.7,   -0.3,   -1.0,   -3.3,   -3.6,   -4.9,   -6.9,   -7.3,   -8.7,  -10.7,  -11.1,  -11.3,  -11.8,  -12.8,  -13.2,  -12.2,  -11.6,  -12.2,  -13.2,  -13.3,  -13.8,  -14.1,  999.0,  999.0,  999.0,  999.0,  999.0,  999.0,  -55.2,  -55.2,  -55.2,  -55.2,  -55.2,  -55.2,  -55.2,  -55.2,  -55.2,  -55.3,  -55.2,  -55.3,  -55.3,  -55.3,  -55.4,  -55.4,  -55.4,  -55.4,  -55.5,  -55.5,  -55.6,  -55.3,  999.0,  -55.7,  -55.3,  999.0,  -55.1,  -56.1,  999.0
2005/10/09 01:00,  999.0,    2.3,    4.4,    4.9,    4.5,    3.8,    0.7,   -1.9,  999.0,   -3.5,   -4.2,   -5.2,   -6.2,   -6.0,   -7.9,  999.0,  -11.0,  -10.9,  -11.4,  -12.7,  -11.7,  -12.0,  -12.2,  -12.2,  -12.8,  -13.3,  -13.8,  999.0,  999.0,  999.0,  999.0,  999.0,  999.0,  999.0,  999.0,  999.0,  -55.2,  -55.2,  -55.2,  -55.3,  -55.2,  -55.3,  -55.3,  -55.3,  -55.4,  -55.3,  -55.1,  -55.4,  -55.4,  -55.4,  -55.4,  -55.4,  -55.4,  -55.0,  -55.4,  -55.5,  999.0,  -55.3,  -55.5,  999.0,  999.0,  999.0,  999.0
2005/10/09 01:10,  999.0,    3.2,    4.7,    5.4,  999.0,  999.0,    1.5,   -1.2,   -1.8,   -3.1,   -4.4,   -5.0,   -6.9,   -7.9,   -8.2,   -9.6,  -10.3,  -10.5,  -11.1,  -11.6,  -11.7,  -11.9,  -12.5,  -12.5,  -12.9,  -13.8,  -15.1,  999.0,  999.0,  999.0,  999.0,  999.0,  999.0,  999.0,  999.0,  -55.2,  -55.2,  -55.2,  -55.2,  -55.3,  -55.3,  -55.2,  -55.2,  -55.3,  -55.3,  -55.3,  -55.4,  -55.3,  -55.4,  -55.4,  -55.4,  -55.2,  -55.3,  -55.5,  -55.8,  -55.3,  -55.8,  -55.3,  -55.3,  999.0,  -55.3,  999.0,  999.0
2005/10/09 01:20,  999.0,    3.5,    5.0,    5.9,  999.0,    0.4,   -0.1,  999.0,   -0.5,   -2.7,   -4.3,   -5.7,   -7.4,   -8.4,   -9.6,  -10.1,  -10.2,  -10.7,  -11.2,  -11.1,  -11.0,  -11.7,  -12.3,  -12.7,  -12.6,  -13.7,  999.0,  999.0,  999.0,  999.0,  999.0,  999.0,  999.0,  999.0,  999.0,  999.0,  -55.1,  -55.2,  -55.2,  -55.2,  -55.3,  -55.2,  -55.3,  -55.3,  -55.3,  -55.3,  -55.3,  -55.3,  -55.3,  -55.4,  -55.3,  -55.5,  -55.5,  -55.4,  -55.8,  -55.4,  -55.7,  999.0,  999.0,  999.0,  999.0,  999.0,  999.0
2005/10/09 01:30,  999.0,    3.0,    4.5,  999.0,    5.8,  999.0,  999.0,  999.0,  999.0,   -2.0,   -4.7,   -6.2,   -7.8,   -8.9,   -9.2,  -10.0,  -10.9,  -11.6,  -11.4,  -11.3,  -11.6,  -11.7,  -12.2,  -12.6,  -13.2,  -14.0,  -14.2,  999.0,  999.0,  999.0,  999.0,  999.0,  999.0,  999.0,  -38.4,  999.0,  999.0,  -55.2,  -55.3,  -55.2,  -55.2,  -55.2,  -55.2,  -55.3,  -55.3,  -55.3,  -55.3,  -55.5,  -55.3,  -55.4,  -55.4,  -55.5,  -55.3,  -55.4,  -55.5,  -55.5,  999.0,  -55.6,  -55.7,  999.0,  999.0,  999.0,  999.0
2005/10/09 01:40,  999.0,    2.9,    4.3,    5.6,    5.0,    4.1,  999.0,  999.0,   -0.1,   -1.3,   -3.4,   -5.4,   -7.8,   -9.7,  -10.1,  -10.2,  -11.4,  -11.8,  -11.9,  -11.5,  -11.7,  -12.5,  -13.0,  -13.7,  -14.4,  -14.8,  999.0,  999.0,  999.0,  999.0,  999.0,  999.0,  999.0,  999.0,  999.0,  -55.2,  -55.2,  -55.2,  -55.2,  -55.3,  -55.2,  -55.2,  -55.2,  -55.2,  -55.2,  -55.2,  -55.3,  -55.3,  -55.3,  -55.3,  -55.3,  -55.3,  -55.5,  -55.4,  -55.4,  -55.4,  999.0,  -55.5,  -55.7,  999.0,  999.0,  999.0,  999.0
2005/10/09 01:50,  999.0,    2.9,    4.9,    5.8,    6.1,    5.2,    3.7,    2.5,    1.5,    0.7,   -2.3,   -5.2,   -6.5,   -8.6,  -10.7,  -11.0,  -12.1,  -12.6,  -12.8,  -12.6,  -12.7,  -13.2,  -13.6,  -13.6,  -14.0,  -13.9,  999.0,  999.0,  999.0,  999.0,  999.0,  999.0,  -55.3,  -55.1,  -55.1,  -55.2,  -55.2,  -55.2,  -55.2,  -55.3,  -55.3,  -55.3,  -55.4,  -55.3,  -55.4,  -55.2,  -55.4,  -55.4,  -55.3,  -55.5,  -55.4,  -55.5,  -55.5,  -55.4,  -55.6,  999.0,  -55.4,  -55.7,  999.0,  999.0,  999.0,  999.0,  999.0
2005/10/09 02:00,  999.0,    2.7,    4.1,    5.6,    4.8,    4.1,    2.6,    1.4,    0.9,    0.2,   -2.1,   -5.8,   -8.2,   -9.7,  -10.9,  -11.4,  -11.9,  -11.8,  -12.2,  -12.2,  -12.6,  -12.9,  -13.7,  -14.0,  -14.1,  -14.5,  999.0,  999.0,  999.0,  999.0,  999.0,  999.0,  999.0,  -55.2,  -55.2,  -55.2,  -55.2,  -55.2,  -55.2,  -55.2,  -55.3,  -55.3,  -55.2,  -55.2,  -55.3,  -55.4,  -55.3,  -55.3,  -55.2,  -55.3,  -55.4,  -55.5,  -55.5,  -55.2,  -55.6,  -55.5,  -55.6,  -55.5,  999.0,  999.0,  999.0,  999.0,  999.0
2005/10/09 02:10,  999.0,    3.4,    4.9,    5.8,    5.4,    4.1,    2.1,    0.1,    0.8,   -0.2,  999.0,   -7.2,   -9.2,   -9.8,  -10.9,  -11.1,  -11.1,  -11.6,  -12.1,  -12.9,  -13.5,  -14.2,  -14.0,  -14.5,  999.0,  999.0,  999.0,  999.0,  999.0,  999.0,  999.0,  -55.1,  -55.1,  999.0,  -55.2,  -55.2,  -55.2,  -55.2,  -55.2,  -55.2,  -55.2,  -55.2,  -55.2,  -55.2,  -55.1,  -55.2,  -55.3,  -55.2,  -55.3,  -55.2,  -55.4,  -55.4,  -55.3,  -55.4,  -55.1,  -55.5,  -55.6,  -55.5,  -55.2,  999.0,  999.0,  999.0,  999.0
2005/10/09 02:20,  999.0,    2.9,    4.7,    5.9,    6.8,    4.4,    2.3,    0.9,    0.8,   -0.1,   -4.9,   -8.4,   -9.8,  -10.8,  -11.2,  -11.4,  -11.2,  -11.3,  -12.4,  -13.4,  999.0,  999.0,  -15.0,  999.0,  -15.5,  999.0,  999.0,  999.0,  999.0,  999.0,  -55.3,  -55.1,  -55.2,  -55.2,  -55.2,  -55.2,  -55.2,  -55.2,  -55.3,  -55.3,  -55.2,  -55.3,  -55.3,  -55.3,  -55.2,  -55.3,  -55.3,  -55.4,  -55.3,  -55.5,  -55.5,  -55.5,  -55.6,  -55.4,  -55.5,  -55.0,  -55.1,  -55.2,  -55.2,  999.0,  999.0,  999.0,  999.0
2005/10/09 02:30,  999.0,    3.2,    4.9,    5.9,    5.2,    4.3,    2.6,    1.7,    1.1,   -0.6,   -3.6,   -8.1,   -9.7,  -10.7,  999.0,  999.0,  999.0,  -11.8,  -11.5,  -12.2,  999.0,  -13.7,  999.0,  999.0,  999.0,  999.0,  999.0,  999.0,  999.0,  999.0,  999.0,  999.0,  999.0,  999.0,  999.0,  -55.2,  -55.2,  -55.2,  -55.2,  -55.3,  -55.2,  -55.3,  -55.3,  -55.3,  -55.4,  -55.4,  -55.2,  -55.3,  -55.4,  -55.4,  -55.5,  -55.5,  -55.4,  999.0,  -55.4,  -55.5,  -55.7,  -55.5,  999.0,  999.0,  -55.8,  999.0,  999.0
2005/10/09 02:40,  999.0,    3.8,    4.5,    5.8,    4.7,    3.7,    2.4,  999.0,  999.0,   -0.7,   -4.7,   -8.0,   -9.8,  -11.2,  -11.0,  -10.7,  -10.8,  999.0,  -11.3,  -11.7,  -13.3,  -13.6,  -14.2,  -14.5,  -14.7,  -15.4,  999.0,  999.0,  999.0,  999.0,  999.0,  999.0,  999.0,  999.0,  999.0,  -55.2,  -55.2,  -55.2,  -55.2,  -55.1,  -55.2,  -55.2,  -55.3,  -55.3,  -55.3,  -55.3,  -55.4,  -55.3,  -55.3,  -55.4,  -55.4,  -55.4,  -55.3,  -55.4,  -55.6,  -55.5,  -49.7,  -55.3,  999.0,  999.0,  -55.3,  999.0,  999.0
2005/10/09 02:50,  999.0,    2.5,    4.1,  999.0,  999.0,   -0.2,    3.1,    0.1,  999.0,  999.0,   -4.2,   -7.4,  -10.0,  -10.9,  -10.5,  -11.4,  -12.0,  -11.9,  999.0,  -12.0,  -12.7,  -13.1,  -13.9,  -14.2,  -14.2,  -15.7,  999.0,  999.0,  999.0,  999.0,  999.0,  999.0,  999.0,  999.0,  -55.1,  -55.2,  -55.2,  -55.2,  -55.3,  -55.3,  -55.2,  -55.3,  -55.4,  -55.4,  -55.4,  -55.5,  -55.4,  -55.5,  999.0,  999.0,  999.0,  999.0,  999.0,  -34.8,  -36.0,  -35.7,  -35.7,  -35.5,  999.0,  999.0,  999.0,  999.0,  999.0
2005/10/09 03:00,  999.0,    1.8,    5.0,    6.1,    4.9,    4.4,    3.4,    0.4,   -0.0,  999.0,   -4.6,   -6.7,   -9.8,  -10.9,  999.0,  -13.2,  999.0,  -11.7,  -12.4,  -13.1,  -13.2,  -13.1,  -13.4,  -14.0,  -14.4,  -15.4,  999.0,  999.0,  999.0,  999.0,  999.0,  999.0,  999.0,  999.0,  -55.1,  -55.2,  -55.2,  -55.2,  -55.2,  -55.2,  -55.2,  -55.3,  -55.2,  -55.4,  -55.3,  -55.3,  999.0,  999.0,  999.0,  999.0,  999.0,  999.0,  999.0,  -34.8,  -35.4,  -35.0,  -34.4,  -34.3,  -34.8,  999.0,  999.0,  999.0,  999.0
2005/10/09 03:10,  999.0,    3.2,    4.6,    5.2,    4.2,  999.0,    2.7,    1.0,   -0.4,   -1.3,   -3.8,   -6.6,   -9.2,  -10.6,  -11.6,  -12.3,  -11.8,  -11.9,  -12.2,  -12.4,  -12.5,  -13.0,  -12.9,  -14.0,  -14.5,  -14.4,  999.0,  999.0,  999.0,  999.0,  999.0,  999.0,  999.0,  999.0,  -55.2,  -55.2,  -55.2,  -55.2,  -55.2,  -55.2,  -55.3,  -55.3,  -55.3,  -55.3,  -55.2,  -55.3,  -55.4,  -55.2,  -55.4,  -55.4,  -55.3,  -50.6,  -49.1,  -45.3,  -45.7,  -45.8,  -42.8,  -46.0,  999.0,  999.0,  -55.8,  999.0,  999.0
2005/10/09 03:20,  999.0,    1.6,    4.7,    5.1,    4.5,  999.0,    2.5,    1.3,   -0.8,   -1.5,  999.0,   -6.7,   -8.8,  999.0,  -12.2,  -12.9,  -11.9,  -12.0,  -12.1,  -11.9,  -12.3,  -12.7,  -13.2,  -13.8,  -14.7,  999.0,  999.0,  999.0,  999.0,  999.0,  999.0,  999.0,  999.0,  999.0,  999.0,  -55.2,  -55.2,  -55.3,  -55.2,  -55.2,  -55.3,  -55.3,  -55.3,  -55.3,  -55.3,  -55.3,  -55.4,  -55.4,  -55.4,  -55.4,  -55.4,  -55.7,  -55.4,  -55.6,  -55.6,  999.0,  -55.6,  -55.8,  -55.4,  999.0,  999.0,  999.0,  999.0
2005/10/09 03:30,  999.0,    2.7,    4.6,    4.8,    4.1,    4.2,    2.1,    1.0,   -1.1,  999.0,  999.0,   -6.6,   -8.4,  999.0,  999.0,  -12.1,  -11.2,  -11.3,  -12.1,  -11.9,  -12.2,  -12.4,  -12.8,  -13.6,  999.0,  999.0,  999.0,  999.0,  999.0,  999.0,  999.0,  999.0,  999.0,  -55.1,  -55.2,  -55.2,  -55.2,  -55.2,  -55.2,  -55.2,  -55.3,  -55.3,  -55.2,  -55.3,  -55.3,  -55.3,  -55.4,  -55.4,  -55.4,  -55.4,  -55.3,  -55.4,  -55.6,  -55.5,  -55.3,  -55.6,  999.0,  -55.6,  999.0,  999.0,  999.0,  999.0,  -55.3
2005/10/09 03:40,  999.0,    3.7,  999.0,    4.2,  999.0,  999.0,    2.1,    1.2,   -1.3,   -1.2,  999.0,   -6.3,   -8.9,  999.0,  999.0,  999.0,  -11.8,  -12.0,  -11.9,  -12.1,  -12.3,  -11.3,  -12.6,  -13.6,  -14.4,  999.0,  999.0,  999.0,  999.0,  999.0,  -55.2,  -55.1,  -55.1,  -55.2,  -55.2,  -55.1,  -55.2,  -55.2,  -55.2,  -55.2,  -55.2,  -55.2,  -55.2,  -55.2,  -55.2,  -55.2,  -55.3,  -55.3,  -55.3,  -55.3,  -55.5,  -55.4,  -55.3,  -55.5,  -55.2,  -55.3,  -55.4,  -55.3,  -55.3,  999.0,  999.0,  999.0,  999.0
2005/10/09 03:50,  999.0,    4.3,    4.1,    4.8,    4.2,  999.0,    3.4,    0.8,   -0.8,   -1.3,   -5.8,  999.0,  999.0,  999.0,  999.0,  999.0,  -12.2,  -12.1,  -11.6,  -11.4,  -12.0,  -12.9,  -13.4,  999.0,  999.0,  999.0,  999.0,  999.0,  999.0,  999.0,  999.0,  -55.3,  -55.2,  -55.2,  -55.3,  -55.2,  -55.2,  -55.3,  -55.3,  -55.3,  -55.3,  -55.3,  -55.3,  -55.4,  -55.3,  -55.3,  -55.3,  -55.4,  -55.3,  -55.6,  -55.5,  -55.5,  -55.3,  -55.3,  -55.2,  -55.6,  -55.2,  -55.5,  -55.2,  999.0,  999.0,  -56.0,  999.0
2005/10/09 04:00,  999.0,    3.7,    4.8,    5.3,    3.8,    3.4,    3.3,    0.9,   -0.8,   -1.7,   -1.9,   -6.9,  999.0,  -10.1,  999.0,  -11.2,  -12.2,  -11.8,  -11.6,  -11.2,  -12.3,  -13.2,  999.0,  999.0,  999.0,  999.0,  999.0,  999.0,  999.0,  999.0,  999.0,  999.0,  999.0,  -55.2,  -55.2,  -55.1,  -55.2,  -55.2,  -55.2,  -55.2,  -55.3,  -55.3,  -55.2,  -55.3,  -55.3,  -55.2,  -55.3,  -55.4,  -55.3,  -55.5,  -55.5,  -55.3,  -55.4,  999.0,  -55.7,  -55.7,  999.0,  -55.5,  999.0,  999.0,  999.0,  999.0,  999.0
2005/10/09 04:10,  999.0,    2.8,    4.2,    4.4,    3.3,    3.7,    3.2,    0.8,   -0.3,   -2.0,  999.0,   -6.1,   -9.4,  999.0,  999.0,  -12.1,  -12.0,  999.0,  -11.2,  -11.7,  -12.4,  -13.0,  -13.9,  -14.1,  -14.4,  999.0,  999.0,  999.0,  999.0,  999.0,  999.0,  999.0,  999.0,  -55.2,  -55.0,  -55.2,  -55.2,  -55.2,  -55.2,  -55.2,  -55.2,  -55.2,  -55.3,  -55.3,  -55.3,  -55.3,  -55.3,  -55.3,  -55.3,  -55.5,  -55.4,  999.0,  999.0,  999.0,  999.0,  999.0,  999.0,  -37.9,  -38.4,  999.0,  -38.9,  999.0,  999.0
2005/10/09 04:20,  999.0,  999.0,    3.7,    4.6,  999.0,    3.4,    2.9,    1.1,   -0.1,   -2.1,  999.0,  999.0,   -9.5,  -10.8,  999.0,  -11.8,  999.0,  999.0,  -11.3,  999.0,  -11.8,  -12.8,  999.0,  999.0,  999.0,  999.0,  999.0,  999.0,  999.0,  999.0,  999.0,  999.0,  999.0,  999.0,  -55.2,  -55.3,  -55.2,  -55.3,  -55.2,  -55.2,  -55.3,  -55.3,  -55.3,  -55.2,  -55.3,  -55.3,  -55.2,  -55.3,  -55.4,  -55.3,  -55.3,  -55.3,  -55.3,  -55.4,  -55.4,  999.0,  999.0,  999.0,  999.0,  999.0,  999.0,  999.0,  999.0
2005/10/09 04:30,  999.0,    2.9,    3.8,    3.9,    4.1,    3.3,    2.4,    1.2,   -0.3,   -1.7,   -3.4,  999.0,  999.0,  999.0,  999.0,  -11.1,  -11.2,  999.0,  999.0,  999.0,  999.0,  999.0,  999.0,  999.0,  999.0,  999.0,  999.0,  -55.1,  -55.1,  -55.1,  -55.1,  -55.1,  -55.1,  -55.1,  -55.2,  -55.2,  -55.2,  -55.2,  -55.2,  -55.2,  -55.2,  -55.2,  -55.2,  -55.2,  -55.3,  -55.3,  -55.4,  -55.4,  -55.3,  -55.5,  -55.3,  -55.3,  -55.2,  -55.3,  999.0,  999.0,  999.0,  999.0,  999.0,  999.0,  999.0,  999.0,  999.0
2005/10/09 04:40,  999.0,    2.5,    2.8,    4.3,    3.9,    3.1,    1.9,    1.8,    0.7,   -1.3,   -3.2,  999.0,   -8.9,  999.0,  999.0,  999.0,  -11.2,  -11.5,  999.0,  999.0,  999.0,  999.0,  999.0,  999.0,  999.0,  999.0,  999.0,  999.0,  -55.1,  -55.1,  -55.1,  -55.2,  -55.2,  -55.1,  -55.1,  -55.2,  -55.2,  -55.2,  -55.2,  -55.2,  -55.3,  -55.3,  -55.3,  -55.2,  -55.3,  -55.3,  -55.2,  -55.3,  -55.2,  -55.5,  -55.4,  -55.5,  -55.2,  -55.4,  999.0,  -55.6,  999.0,  -55.5,  999.0,  999.0,  999.0,  999.0,  999.0
2005/10/09 04:50,  999.0,    2.8,    4.4,    5.6,    4.7,    3.6,    3.1,    1.9,   -0.0,   -1.1,   -2.9,  999.0,   -8.8,  -10.4,  -10.9,  999.0,  999.0,  999.0,  999.0,  999.0,  999.0,  999.0,  999.0,  999.0,  999.0,  999.0,  999.0,  999.0,  999.0,  999.0,  999.0,  -55.2,  -55.1,  -55.2,  -55.2,  -55.2,  -55.2,  -55.2,  -55.2,  -55.3,  -55.2,  -55.2,  -55.3,  -55.3,  -55.3,  -55.3,  -55.3,  -55.4,  -55.3,  -55.4,  -55.5,  -55.3,  -55.3,  -55.4,  -55.2,  999.0,  -55.8,  -55.3,  999.0,  999.0,  999.0,  999.0,  999.0
2005/10/09 05:00,  999.0,    3.0,    4.4,    5.1,    4.3,    3.7,    2.3,    2.0,    0.9,   -1.0,   -3.7,   -7.2,   -8.6,  -10.0,  -11.4,  999.0,  -11.6,  999.0,  999.0,  999.0,  999.0,  999.0,  999.0,  999.0,  999.0,  999.0,  999.0,  999.0,  999.0,  999.0,  999.0,  999.0,  -55.2,  -55.2,  -55.2,  -55.1,  -55.2,  -55.1,  -55.2,  -55.2,  -55.2,  -55.2,  -55.3,  -55.3,  -55.3,  -55.3,  -55.3,  -55.3,  -55.3,  -55.3,  -55.2,  -55.3,  -55.5,  -55.4,  -55.6,  -55.5,  -55.5,  -55.4,  999.0,  999.0,  -55.3,  999.0,  999.0
2005/10/09 05:10,  999.0,    3.1,    4.7,  999.0,    3.7,    5.2,    2.6,    2.1,    0.1,   -1.5,   -3.9,   -7.6,   -8.8,  -10.3,  -11.4,  999.0,  999.0,  999.0,  999.0,  999.0,  999.0,  999.0,  999.0,  -55.1,  -55.1,  -55.1,  -55.1,  -55.1,  -55.1,  -55.1,  -55.2,  -55.1,  -55.1,  -55.1,  -55.1,  -55.1,  -55.2,  -55.2,  -55.2,  -55.2,  -55.3,  -55.1,  -55.2,  -55.2,  -55.2,  -55.2,  -55.2,  -55.2,  -55.2,  -55.3,  -55.3,  -55.4,  -55.3,  -55.3,  -55.2,  -55.4,  -55.4,  -55.3,  999.0,  999.0,  999.0,  999.0,  999.0
2005/10/09 05:20,  999.0,  999.0,    5.4,  999.0,    5.7,    4.5,    2.7,    1.3,    0.3,   -1.4,   -4.1,   -7.0,   -8.3,  -10.3,  -11.9,  -11.8,  999.0,  999.0,  999.0,  999.0,  999.0,  999.0,  999.0,  -55.1,  -55.1,  -55.1,  -55.2,  -55.2,  -55.2,  -55.2,  -55.2,  -55.2,  -55.2,  -55.2,  -55.2,  -55.2,  -55.2,  -55.3,  -55.3,  -55.2,  -55.2,  -55.3,  -55.3,  -55.3,  -55.3,  -55.3,  -55.3,  -55.3,  -55.4,  -55.4,  -55.4,  -55.4,  -55.4,  -55.5,  -55.5,  -55.2,  -55.3,  -55.2,  999.0,  999.0,  999.0,  999.0,  999.0
2005/10/09 05:30,  999.0,    2.5,  999.0,    6.3,  999.0,    4.7,  999.0,   -1.1,   -2.2,   -4.4,   -3.4,   -6.5,   -8.8,   -9.8,  999.0,  999.0,  999.0,  999.0,  999.0,  999.0,  999.0,  999.0,  999.0,  999.0,  -55.1,  -55.1,  -55.1,  -55.1,  -55.0,  -55.2,  -55.2,  -55.2,  -55.1,  -55.1,  -55.2,  -55.1,  -55.2,  -55.1,  -55.1,  -55.2,  -55.2,  -55.3,  -55.2,  -55.3,  -55.2,  -55.3,  -55.3,  -55.3,  -55.4,  999.0,  999.0,  -55.2,  -55.8,  999.0,  999.0,  999.0,  999.0,  999.0,  999.0,  999.0,  999.0,  999.0,  999.0
2005/10/09 05:40,  999.0,    2.4,  999.0,  999.0,  999.0,    4.3,    2.8,    1.7,    0.3,   -1.1,   -3.9,   -6.2,   -9.0,  -10.3,  -11.2,  -11.6,  999.0,  999.0,  999.0,  999.0,  999.0,  -55.1,  -55.0,  -55.1,  -55.0,  -55.2,  -55.1,  -55.2,  -55.2,  -55.1,  -55.1,  -55.1,  -55.1,  -55.2,  -55.1,  -55.1,  -55.2,  -55.1,  -55.2,  -55.2,  -55.2,  -55.3,  -55.3,  -55.2,  -55.3,  -55.2,  -55.2,  -55.3,  -55.3,  -55.3,  -55.5,  -55.4,  -55.3,  999.0,  -55.3,  -55.4,  -55.6,  -55.5,  999.0,  999.0,  999.0,  999.0,  999.0
2005/10/09 05:50,  999.0,    3.3,    3.5,    5.2,    5.7,    4.2,    2.7,    1.3,    1.5,   -0.8,   -3.0,   -6.4,   -9.0,  -10.4,  -11.4,  -11.5,  999.0,  999.0,  999.0,  999.0,  999.0,  999.0,  999.0,  999.0,  999.0,  999.0,  -55.3,  -55.3,  -55.1,  -55.1,  999.0,  -55.2,  -55.2,  -55.2,  -55.2,  -55.1,  -55.1,  -55.2,  -55.2,  -55.1,  -55.2,  -55.2,  -55.3,  -55.2,  -55.3,  -55.3,  -55.4,  -55.2,  -55.3,  -55.2,  -55.4,  -55.4,  -55.2,  -55.2,  999.0,  999.0,  999.0,  999.0,  999.0,  999.0,  999.0,  999.0,  999.0
2005/10/09 06:00,  999.0,    2.8,    4.5,    4.8,    4.3,    3.8,    3.5,    2.5,    2.0,    0.1,   -2.2,   -5.8,   -8.8,  -10.6,  999.0,  999.0,  -11.8,  999.0,  999.0,  999.0,  999.0,  999.0,  999.0,  999.0,  -55.1,  -55.1,  -55.1,  -55.1,  -55.2,  -55.1,  -55.1,  -55.2,  -55.1,  -55.1,  -55.1,  -55.2,  -55.2,  -55.2,  -55.2,  -55.2,  -55.2,  -55.2,  -55.2,  -55.3,  -55.3,  -55.3,  -55.3,  -55.2,  -55.4,  -55.3,  -55.6,  -55.3,  -55.2,  -55.4,  -56.0,  -55.0,  -55.4,  999.0,  999.0,  999.0,  999.0,  999.0,  999.0
2005/10/09 06:10,  999.0,    3.0,    4.0,    4.7,    4.6,    4.0,    3.4,    2.6,    0.8,   -0.4,   -2.3,   -6.6,   -8.2,  -10.2,  -10.5,  -11.1,  999.0,  999.0,  999.0,  999.0,  999.0,  999.0,  999.0,  999.0,  -55.2,  -55.1,  -55.1,  -55.1,  -55.1,  -55.1,  -55.1,  -55.2,  -55.2,  -55.2,  -55.3,  -55.1,  -55.2,  -55.2,  -55.1,  -55.2,  -55.2,  -55.2,  -55.2,  -55.2,  -55.3,  -55.3,  -55.2,  -55.1,  -55.2,  -55.3,  -55.2,  -55.4,  -55.4,  -55.2,  -55.3,  -55.3,  -55.3,  999.0,  999.0,  999.0,  999.0,  999.0,  999.0
2005/10/09 06:20,  999.0,    0.9,    3.5,    4.7,    4.5,    3.8,    3.1,    2.3,    1.2,   -0.3,   -1.9,   -5.9,   -7.8,   -9.6,  999.0,  -10.6,  999.0,  999.0,  999.0,  999.0,  999.0,  999.0,  999.0,  999.0,  999.0,  -55.2,  -55.2,  -55.2,  -55.2,  -55.2,  -55.2,  -55.2,  -55.2,  -55.2,  -55.1,  -55.1,  -55.3,  -55.3,  -55.2,  -55.3,  -55.3,  -55.3,  -55.2,  -55.3,  -55.4,  -55.2,  -55.4,  -55.5,  -55.3,  -55.4,  -55.4,  -55.5,  -55.4,  -55.5,  999.0,  999.0,  999.0,  -54.7,  999.0,  999.0,  999.0,  999.0,  999.0
2005/10/09 06:30,  999.0,    2.6,    4.0,    5.1,    4.3,    3.6,    3.1,    2.7,    1.4,   -0.5,   -2.4,   -5.1,   -7.5,   -9.3,  999.0,  -10.3,  999.0,  999.0,  999.0,  999.0,  999.0,  999.0,  999.0,  999.0,  999.0,  -55.1,  -55.1,  -55.1,  -55.1,  -55.1,  -55.1,  -55.1,  -55.2,  -55.1,  -55.1,  -55.2,  -55.2,  -55.2,  -55.2,  -55.3,  -55.2,  -55.2,  -55.2,  -55.2,  -55.2,  -55.3,  -55.4,  -55.3,  -55.2,  -55.3,  -55.2,  -55.3,  -55.3,  -55.1,  -55.6,  -55.4,  999.0,  999.0,  999.0,  999.0,  999.0,  999.0,  999.0
2005/10/09 06:40,  999.0,    3.1,    5.0,    4.7,    4.5,    5.0,    4.5,    4.1,    2.9,    0.2,   -2.2,   -5.8,   -8.2,  999.0,  999.0,  999.0,  999.0,  999.0,  999.0,  999.0,  999.0,  999.0,  999.0,  999.0,  -55.1,  -55.1,  -55.1,  -55.1,  -55.1,  -55.1,  -55.1,  -55.1,  -55.2,  -55.1,  -55.2,  -55.1,  -55.1,  -55.2,  -55.2,  -55.2,  -55.2,  -55.2,  -55.2,  -55.2,  -55.2,  -55.3,  -55.3,  -55.3,  -55.3,  -55.3,  -55.3,  -55.3,  -55.3,  -55.3,  -55.3,  -55.5,  -54.7,  -55.3,  999.0,  999.0,  999.0,  999.0,  999.0
2005/10/09 06:50,  999.0,    1.3,    4.8,    4.8,    4.9,    4.3,    4.3,    3.6,    2.8,   -0.2,   -2.0,   -3.5,   -6.6,   -7.4,   -9.7,  -10.3,  999.0,  999.0,  999.0,  999.0,  999.0,  999.0,  -55.1,  -55.3,  -55.2,  -55.1,  -55.2,  -55.1,  -55.2,  -55.2,  -55.1,  -55.2,  -55.2,  -55.2,  -55.2,  -55.2,  -55.2,  -55.3,  -55.2,  -55.3,  -55.3,  -55.2,  -55.2,  -55.3,  -55.3,  -55.3,  -55.3,  -55.4,  -55.3,  -55.3,  -55.3,  -55.5,  -55.5,  -55.5,  999.0,  999.0,  -55.4,  999.0,  999.0,  999.0,  999.0,  -55.4,  999.0
2005/10/09 07:00,  999.0,    2.1,    4.0,    4.3,    4.0,    4.2,    4.9,    3.9,    2.9,   -0.2,   -1.9,   -4.1,   -7.0,   -7.6,  -10.0,  999.0,  999.0,  999.0,  999.0,  999.0,  999.0,  999.0,  -55.2,  -55.1,  -55.1,  -55.1,  -55.1,  -55.1,  -55.1,  -55.1,  -55.1,  -55.1,  -55.1,  -55.1,  -55.2,  -55.2,  -55.2,  -55.2,  -55.2,  -55.2,  -55.2,  -55.2,  -55.2,  -55.2,  -55.3,  -55.3,  -55.2,  -55.1,  -55.4,  -55.5,  -55.6,  -55.1,  -55.6,  999.0,  -55.5,  999.0,  999.0,  -56.1,  999.0,  999.0,  999.0,  999.0,  999.0
2005/10/09 07:10,  999.0,    3.0,    5.4,    5.3,    4.6,    4.4,    4.7,    3.4,    2.4,    0.2,   -2.0,   -4.4,   -6.4,   -7.4,   -9.3,  999.0,  999.0,  999.0,  999.0,  999.0,  999.0,  999.0,  999.0,  999.0,  999.0,  999.0,  -55.1,  -55.1,  -55.1,  -55.1,  -55.1,  -55.1,  -55.2,  -55.2,  -55.1,  -55.2,  -55.2,  -55.2,  -55.2,  -55.3,  -55.2,  -55.2,  -55.2,  -55.2,  -55.2,  -55.3,  -55.2,  -55.4,  -55.3,  -55.3,  -55.4,  -55.4,  -55.4,  -55.3,  -55.6,  -55.5,  -55.4,  -55.7,  999.0,  999.0,  999.0,  999.0,  999.0
2005/10/09 07:20,  999.0,    2.3,    4.8,    5.5,    4.9,    4.8,    4.1,    3.1,    1.4,    0.6,   -2.6,   -5.9,   -7.0,   -7.6,   -9.4,  999.0,  999.0,  999.0,  999.0,  999.0,  999.0,  999.0,  999.0,  999.0,  999.0,  999.0,  999.0,  -55.1,  -55.2,  -55.1,  -55.1,  -55.2,  -55.2,  -55.2,  -55.2,  -55.2,  -55.2,  -55.2,  -55.3,  -55.3,  -55.2,  -55.3,  -55.2,  -55.2,  -55.3,  -55.3,  -55.3,  -55.3,  -55.5,  -55.5,  -55.3,  -55.4,  -55.2,  -55.6,  999.0,  -55.7,  -55.3,  -55.3,  999.0,  999.0,  999.0,  999.0,  999.0
2005/10/09 07:30,  999.0,    1.5,    4.4,    5.7,    4.9,    4.8,    4.7,    2.9,    0.6,   -1.4,   -2.7,  999.0,   -6.7,   -7.6,   -9.5,  999.0,  999.0,  999.0,  999.0,  999.0,  999.0,  999.0,  999.0,  -55.1,  999.0,  999.0,  -55.1,  -55.1,  -55.1,  -55.1,  -55.1,  -55.1,  -55.1,  -55.2,  -55.1,  -55.1,  -55.1,  -55.1,  -55.2,  -55.2,  -55.2,  -55.2,  -55.2,  -55.3,  -55.2,  -55.2,  -55.2,  -55.2,  -55.3,  -55.1,  -55.3,  -55.1,  -55.2,  -55.6,  999.0,  -55.2,  999.0,  999.0,  999.0,  999.0,  999.0,  999.0,  999.0
2005/10/09 07:40,  999.0,    1.2,    4.6,    5.3,    5.3,    5.2,    5.3,    3.5,    1.7,    0.6,   -2.5,   -4.2,   -6.8,   -7.9,   -9.3,   -9.6,  999.0,  999.0,  999.0,  999.0,  999.0,  999.0,  999.0,  999.0,  999.0,  -55.1,  -55.2,  -55.1,  -55.1,  -55.1,  -55.1,  -55.1,  -55.1,  -55.2,  -55.0,  -55.1,  -55.1,  -55.1,  -55.1,  -55.2,  -55.2,  -55.2,  -55.2,  -55.3,  -55.2,  -55.1,  -55.2,  -55.3,  -55.3,  -55.4,  -55.2,  -55.4,  -55.1,  -54.9,  -55.3,  999.0,  999.0,  999.0,  999.0,  999.0,  999.0,  999.0,  999.0
2005/10/09 07:50,  999.0,    1.6,    4.6,    5.4,    4.8,    5.0,    5.7,    2.8,    2.0,   -0.6,   -2.2,  999.0,   -6.7,  999.0,  999.0,  999.0,  999.0,  999.0,  999.0,  999.0,  999.0,  999.0,  999.0,  999.0,  999.0,  -55.1,  -55.2,  -55.1,  -55.1,  -55.1,  -55.1,  -55.1,  -55.2,  -55.1,  -55.2,  -55.1,  -55.2,  -55.1,  -55.2,  -55.3,  -55.2,  -55.3,  -55.3,  -55.3,  -55.2,  -55.5,  -55.2,  -55.2,  -55.4,  -55.3,  999.0,  -55.3,  999.0,  999.0,  999.0,  999.0,  999.0,  999.0,  999.0,  999.0,  999.0,  999.0,  999.0
2005/10/09 08:00,  999.0,    0.9,    4.2,    5.2,    6.0,    5.4,    5.0,    2.7,    1.3,   -1.1,   -3.1,  999.0,  999.0,  999.0,  999.0,  999.0,  999.0,  999.0,  999.0,  999.0,  999.0,  -27.5,  -27.5,  -41.3,  -45.9,  -41.3,  -45.9,  -55.1,  -48.2,  -45.9,  -41.4,  -38.6,  -38.6,  -45.9,  -38.6,  -44.2,  -48.2,  -38.6,  -38.7,  -48.3,  -55.2,  -33.1,  -38.6,  -44.2,  -41.4,  -41.5,  -41.5,  -55.2,  -55.5,  -41.6,  999.0,   -0.1,  -36.7,  999.0,  999.0,  999.0,  999.0,  999.0,  999.0,  999.0,  999.0,  999.0,  999.0
2005/10/09 08:10,  999.0,    1.0,    3.9,    5.4,    6.4,    6.2,    5.5,    4.2,    2.5,   -0.0,  999.0,   -4.3,  999.0,  999.0,   -8.2,  999.0,  999.0,  999.0,  999.0,  999.0,  999.0,  999.0,  -55.1,  999.0,  999.0,  999.0,  999.0,  -55.0,  -55.1,  -55.1,  -55.0,  -55.1,  -55.1,  -55.0,  -55.1,  -55.1,  -55.1,  -55.1,  -55.1,  -55.1,  -55.1,  -55.2,  -55.2,  -55.1,  -55.1,  999.0,  -55.2,  -55.2,  -55.4,  -55.3,  -55.2,  -55.5,  999.0,  -55.2,  999.0,  999.0,  999.0,  999.0,  999.0,  999.0,  999.0,  999.0,  999.0
2005/10/09 08:20,  999.0,    0.8,    4.0,    5.3,    5.2,  999.0,    4.2,    3.4,    1.8,   -1.0,   -2.5,  999.0,  999.0,  999.0,  999.0,   -7.4,  999.0,  999.0,  999.0,  999.0,  999.0,  999.0,  999.0,  999.0,  999.0,  999.0,  999.0,  999.0,  999.0,  999.0,  999.0,  999.0,  999.0,  999.0,  999.0,  -27.7,  -27.6,  -27.7,  -27.6,  -27.7,  999.0,  999.0,  -27.8,  -27.7,  999.0,  -27.7,  -27.6,  999.0,  999.0,  999.0,  999.0,  999.0,  999.0,  999.0,  999.0,  999.0,  999.0,  999.0,  999.0,  999.0,  999.0,  999.0,  999.0
2005/10/09 08:30,  999.0,    0.7,    4.3,    4.4,    4.7,    5.2,    3.4,    1.5,    0.7,   -1.8,   -3.6,   -4.6,   -7.0,  999.0,  999.0,  999.0,  999.0,  999.0,  999.0,  999.0,  999.0,  999.0,  999.0,  999.0,  999.0,  999.0,  999.0,  999.0,  999.0,  999.0,  999.0,  999.0,  999.0,  999.0,  999.0,   -1.5,    0.1,   -0.0,    0.0,    0.0,   -0.1,    0.1,    0.0,    0.0,    0.0,    0.1,   -0.1,    0.1,   -0.1,  999.0,   -0.0,  999.0,  999.0,  999.0,  999.0,  999.0,  999.0,  999.0,  999.0,  999.0,  999.0,  999.0,  999.0
2005/10/09 08:40,  999.0,    2.2,    3.3,    4.8,    5.1,    5.6,    3.4,    1.6,    0.3,   -2.1,   -3.0,  999.0,   -7.5,   -8.3,   -6.1,  999.0,  999.0,  999.0,  999.0,  999.0,  999.0,  999.0,  999.0,  999.0,  999.0,  999.0,  999.0,  -55.1,  -55.0,  -55.1,  -55.1,  -55.1,  -55.1,  -55.1,  -55.1,  -55.1,  -55.2,  -49.6,  -55.2,  -41.4,  -41.5,  -41.4,  -41.4,  -41.6,  -55.4,  -41.5,  -41.3,  -55.3,  -55.3,  -55.2,  -55.2,  -55.6,  -55.6,  999.0,  999.0,  999.0,  999.0,  999.0,  999.0,  999.0,  999.0,  999.0,  999.0
2005/10/09 08:50,  999.0,    0.6,    2.6,    3.5,    5.1,    4.1,    2.6,    0.9,   -0.4,   -2.5,   -3.5,   -5.0,   -7.0,   -7.3,   -5.9,  999.0,  999.0,  999.0,  999.0,  999.0,  999.0,  999.0,  999.0,  999.0,  999.0,  999.0,  -36.7,  -34.4,  -27.5,  -27.5,  -27.5,  -27.6,  -18.4,  -27.5,  -27.5,  -27.5,  -27.5,  -20.6,  -27.5,  -27.7,  -27.6,  -27.5,  -18.5,  -18.5,  -36.7,  -27.5,   -9.1,  999.0,  -27.6,  999.0,  999.0,  999.0,  999.0,  999.0,  999.0,  999.0,  999.0,  999.0,  999.0,  999.0,  999.0,  999.0,  999.0
2005/10/09 09:00,  999.0,    0.0,    2.7,    3.4,    3.9,    3.5,    2.7,    1.1,    0.1,   -2.8,   -4.3,  999.0,  999.0,  999.0,   -6.1,  999.0,  999.0,  999.0,  999.0,  999.0,  999.0,  999.0,  -55.1,  -55.0,  -55.1,  -55.1,  -55.0,  -55.0,  -55.1,  -55.1,  -55.1,  -55.1,  -55.1,  -55.1,  -55.1,  -55.1,  -55.2,  -55.2,  -55.2,  -55.2,  -55.2,  -55.1,  -55.3,  -55.2,  -55.3,  -55.3,  -55.4,  -55.3,  -55.5,  -55.5,  -55.2,  999.0,  -55.8,  999.0,  999.0,  999.0,  999.0,  999.0,  999.0,  999.0,  999.0,  999.0,  999.0
2005/10/09 09:10,  999.0,  999.0,    2.9,    3.7,    4.3,    3.2,    2.3,    1.2,   -0.4,   -2.3,   -3.0,   -5.2,  999.0,  999.0,  999.0,  999.0,  999.0,  999.0,  999.0,  999.0,  999.0,  999.0,  999.0,  -55.1,  -55.0,  -55.0,  -55.0,  -55.0,  -55.0,  -55.0,  -55.1,  -55.0,  -55.0,  -55.0,  -55.1,  -55.1,  -55.1,  -55.2,  -55.2,  -55.1,  -54.8,  -55.0,  -55.1,  -55.2,  999.0,  -55.2,  -55.8,  999.0,  -55.4,  999.0,  999.0,  999.0,  999.0,  999.0,  999.0,  999.0,  999.0,  999.0,  999.0,  999.0,  999.0,  999.0,  999.0
2005/10/09 09:20,  999.0,    1.2,    2.0,    2.7,    3.9,    4.1,    2.7,    1.3,    0.5,   -2.1,   -4.0,   -6.2,  999.0,   -6.5,   -5.4,  999.0,  999.0,  999.0,  999.0,  999.0,  999.0,  999.0,  -54.9,  -54.9,  -54.9,  -54.9,  -54.8,  -55.0,  -54.9,  -54.8,  -54.9,  -54.8,  -54.9,  -54.9,  -54.9,  -54.9,  -54.9,  -54.9,  -55.0,  -54.9,  -54.9,  -54.9,  -54.7,  -55.1,  -54.9,  999.0,  999.0,  999.0,  999.0,  999.0,  999.0,  999.0,  999.0,  999.0,  999.0,  999.0,  999.0,  999.0,  999.0,  999.0,  999.0,  999.0,  999.0
2005/10/09 09:30,  999.0,    0.3,   -0.4,   -0.3,    1.1,    1.4,    0.8,    0.5,   -0.1,   -2.4,   -4.8,   -6.4,   -7.2,   -6.4,   -5.1,  999.0,  999.0,  999.0,  999.0,  999.0,  -54.9,  -54.9,  -55.0,  -55.0,  -54.9,  -54.9,  -54.9,  -54.9,  -54.9,  -55.0,  -54.9,  -54.9,  -54.9,  -54.9,  -54.9,  -54.9,  -55.0,  -54.9,  -55.0,  -55.0,  999.0,  999.0,  999.0,  999.0,  999.0,  999.0,  999.0,  999.0,  999.0,  999.0,  999.0,  999.0,  999.0,  999.0,  999.0,  999.0,  999.0,  999.0,  999.0,  999.0,  999.0,  999.0,  999.0
2005/10/09 09:40,  999.0,   -0.4,    3.1,    2.2,   -0.4,    2.4,    0.6,   -0.4,   -0.5,   -1.4,   -3.8,   -5.8,   -6.3,  999.0,  999.0,  999.0,  999.0,  999.0,  999.0,  999.0,  999.0,  999.0,  -55.0,  -54.9,  -55.0,  -55.0,  -55.0,  -55.0,  -55.0,  -55.0,  -55.0,  -55.1,  -55.0,  -55.0,  -55.0,  999.0,  999.0,  -54.9,  -55.0,  999.0,  999.0,  999.0,  999.0,  999.0,  999.0,  999.0,  999.0,  999.0,  999.0,  999.0,  999.0,  999.0,  999.0,  999.0,  999.0,  999.0,  999.0,  999.0,  999.0,  999.0,  999.0,  999.0,  999.0
2005/10/09 09:50,  999.0,  999.0,  999.0,    1.6,    3.4,    4.3,    2.4,    1.4,   -0.3,   -1.2,   -1.3,  999.0,   -4.4,  999.0,  999.0,  999.0,  999.0,  999.0,  999.0,  999.0,  999.0,  -54.9,  -54.9,  -54.9,  -54.9,  -54.9,  -54.8,  -54.9,  -54.8,  -54.9,  -54.9,  -54.9,  -54.8,  -54.9,  -54.9,  -54.9,  -54.9,  -54.8,  -54.8,  -55.0,  -54.8,  -54.9,  999.0,  999.0,  999.0,  999.0,  999.0,  999.0,  999.0,  999.0,  999.0,  999.0,  999.0,  999.0,  999.0,  999.0,  999.0,  999.0,  999.0,  999.0,  999.0,  999.0,  999.0
2005/10/09 10:00,  999.0,  999.0,  999.0,    0.4,    2.8,    4.7,    2.3,    0.9,    0.3,   -1.8,   -2.2,   -2.5,   -4.4,   -6.9,  999.0,  999.0,  999.0,  999.0,  999.0,  999.0,  999.0,  999.0,  999.0,  999.0,  999.0,  999.0,  999.0,  -36.6,  -45.8,  -36.9,  -55.1,  -55.1,  -41.3,  -41.3,  999.0,  -41.2,  -41.2,  -41.2,  999.0,  -54.9,  999.0,  999.0,  999.0,  999.0,  999.0,  999.0,  999.0,  999.0,  999.0,  999.0,  999.0,  999.0,  999.0,  999.0,  999.0,  999.0,  999.0,  999.0,  999.0,  999.0,  999.0,  999.0,  999.0
2005/10/09 10:10,  999.0,  999.0,  999.0,    0.5,    1.6,    4.2,    2.5,    0.9,    0.2,   -0.5,   -2.8,   -3.3,   -5.0,  999.0,  999.0,  999.0,  999.0,  999.0,  999.0,  999.0,  999.0,  999.0,  -54.9,  -54.8,  -54.9,  -54.9,  -55.0,  -55.0,  -55.0,  -54.9,  -54.9,  -55.0,  -54.9,  -55.0,  -55.0,  -55.1,  -55.1,  -55.1,  -55.1,  -55.1,  -55.1,  -54.9,  -55.1,  -55.0,  999.0,  999.0,  -55.2,  999.0,  999.0,  999.0,  999.0,  999.0,  999.0,  999.0,  999.0,  999.0,  999.0,  999.0,  999.0,  999.0,  999.0,  999.0,  999.0
2005/10/09 10:20,  999.0,    1.3,    0.7,    1.0,    2.5,    3.7,    2.6,    1.2,   -1.2,   -1.3,   -3.2,   -5.7,   -7.4,   -7.0,  999.0,  999.0,  999.0,  999.0,  999.0,  999.0,  999.0,  999.0,  -54.9,  -54.9,  -54.9,  -54.9,  -54.9,  -54.9,  -54.9,  -55.0,  -54.9,  -55.0,  -54.9,  -54.9,  -54.9,  -55.1,  -55.0,  -54.9,  -55.1,  -55.0,  -55.1,  -54.9,  -55.1,  -55.5,  999.0,  999.0,  999.0,  999.0,  999.0,  999.0,  999.0,  999.0,  999.0,  999.0,  999.0,  999.0,  999.0,  999.0,  999.0,  999.0,  999.0,  999.0,  999.0
2005/10/09 10:30,  999.0,    0.8,    0.6,    1.8,    3.7,    5.3,    4.8,    2.5,    1.6,   -0.4,   -3.3,   -6.2,   -8.6,   -7.8,  999.0,  999.0,  999.0,  999.0,  -41.0,  999.0,  -54.6,  -27.4,  -45.6,  -47.9,  -47.9,  -47.8,  -47.9,  -45.6,  -45.6,  -54.8,  -36.6,  -45.7,  -48.1,  -45.7,  -54.7,  -36.4,  999.0,  999.0,  999.0,  999.0,  999.0,  999.0,  999.0,  999.0,  999.0,  999.0,  999.0,  999.0,  999.0,  999.0,  999.0,  999.0,  999.0,  999.0,  999.0,  999.0,  999.0,  999.0,  999.0,  999.0,  999.0,  999.0,  999.0
2005/10/09 10:40,  999.0,  999.0,    3.0,    2.0,    3.4,    4.1,    4.4,    2.5,    0.8,   -1.2,   -3.2,   -6.5,   -9.2,   -8.1,   -7.2,  999.0,  999.0,  999.0,  999.0,  999.0,  999.0,  999.0,  999.0,  -54.7,  -54.6,  -54.7,  -54.8,  -54.8,  -54.9,  -54.9,  -54.7,  -54.9,  -54.8,  999.0,  -54.9,  -54.7,  -54.8,  -54.7,  999.0,  999.0,  999.0,  999.0,  999.0,  999.0,  999.0,  999.0,  999.0,  999.0,  999.0,  999.0,  999.0,  999.0,  999.0,  999.0,  999.0,  999.0,  999.0,  999.0,  999.0,  999.0,  999.0,  999.0,  999.0
2005/10/09 10:50,  999.0,    0.3,    0.8,    0.3,    3.1,    3.9,    4.3,    2.8,    2.3,   -0.2,   -2.0,   -5.7,   -9.1,   -8.4,   -6.7,   -6.4,  999.0,  999.0,  999.0,  999.0,  999.0,  999.0,  -54.9,  -54.8,  -54.7,  -54.7,  -54.7,  -54.7,  -54.6,  -54.8,  999.0,  -54.8,  -54.9,  999.0,  999.0,  999.0,  -55.0,  999.0,  999.0,  999.0,  999.0,  999.0,  999.0,  999.0,  999.0,  999.0,  999.0,  999.0,  999.0,  999.0,  999.0,  999.0,  999.0,  999.0,  999.0,  999.0,  999.0,  999.0,  999.0,  999.0,  999.0,  999.0,  999.0
2005/10/09 11:00,  999.0,    0.6,    1.2,    2.4,    3.8,    5.9,    5.2,    3.5,    2.3,    0.3,   -1.5,   -4.7,   -8.2,   -9.4,   -7.4,   -7.5,  999.0,  999.0,  999.0,  999.0,  999.0,  999.0,  999.0,  999.0,  999.0,  999.0,  999.0,  999.0,  999.0,  999.0,  999.0,  999.0,  999.0,  999.0,  999.0,  999.0,  999.0,  999.0,  -54.7,  999.0,  999.0,  999.0,  999.0,  999.0,  999.0,  999.0,  999.0,  999.0,  999.0,  999.0,  999.0,  999.0,  999.0,  999.0,  999.0,  999.0,  999.0,  999.0,  999.0,  999.0,  999.0,  999.0,  999.0
2005/10/09 11:10,  999.0,    2.1,    1.5,    2.0,    1.1,    2.8,    5.1,    4.2,    2.6,    1.2,   -1.2,   -4.7,   -8.2,   -8.8,   -7.5,   -7.5,  999.0,  999.0,  999.0,  999.0,  999.0,  999.0,  999.0,  999.0,  999.0,  999.0,  999.0,  999.0,  999.0,  999.0,  999.0,  999.0,  999.0,  999.0,  999.0,  999.0,  999.0,  999.0,  999.0,  999.0,  999.0,  999.0,  999.0,  999.0,  999.0,  999.0,  999.0,  999.0,  999.0,  999.0,  999.0,  999.0,  999.0,  999.0,  999.0,  999.0,  999.0,  999.0,  999.0,  999.0,  999.0,  999.0,  999.0
2005/10/09 11:20,  999.0,  999.0,    2.3,    1.1,    2.3,    2.9,    3.6,    5.4,    3.2,    2.6,   -0.0,   -4.5,   -8.2,   -8.5,   -7.2,   -6.4,  999.0,  999.0,  999.0,  999.0,  999.0,  999.0,  999.0,  999.0,  999.0,  999.0,  999.0,  999.0,  999.0,  999.0,  999.0,  999.0,  999.0,  999.0,  999.0,  999.0,  999.0,  999.0,  999.0,  999.0,  999.0,  999.0,  999.0,  999.0,  999.0,  999.0,  999.0,  999.0,  999.0,  999.0,  999.0,  999.0,  999.0,  999.0,  999.0,  999.0,  999.0,  999.0,  999.0,  999.0,  999.0,  999.0,  999.0
2005/10/09 11:30,  999.0,    0.4,   -1.0,    0.8,    1.2,    2.0,    3.1,    3.2,    1.9,    0.5,   -1.6,   -5.3,   -8.8,   -9.0,   -7.2,   -6.6,  999.0,  999.0,  999.0,  999.0,  999.0,  999.0,  999.0,  999.0,  999.0,  999.0,  999.0,  999.0,  999.0,  999.0,  999.0,  999.0,  999.0,  999.0,  999.0,  999.0,  999.0,  999.0,  999.0,  999.0,  999.0,  999.0,  999.0,  999.0,  999.0,  999.0,  999.0,  999.0,  999.0,  999.0,  999.0,  999.0,  999.0,  999.0,  999.0,  999.0,  999.0,  999.0,  999.0,  999.0,  999.0,  999.0,  999.0
2005/10/09 11:40,  999.0,    0.4,    0.4,    0.6,    0.9,    2.8,    3.8,    3.0,    2.7,    1.3,   -0.3,   -4.3,   -7.7,   -8.9,   -6.9,   -6.8,  999.0,  999.0,  999.0,  999.0,  999.0,  999.0,  999.0,  999.0,  999.0,  999.0,  999.0,  999.0,  999.0,  999.0,  999.0,  999.0,  999.0,  999.0,  999.0,  999.0,  999.0,  999.0,  999.0,  999.0,  999.0,  999.0,  999.0,  999.0,  999.0,  999.0,  999.0,  999.0,  999.0,  999.0,  999.0,  999.0,  999.0,  999.0,  999.0,  999.0,  999.0,  999.0,  999.0,  999.0,  999.0,  999.0,  999.0
2005/10/09 11:50,  999.0,   -1.2,  999.0,  999.0,    2.5,    1.0,    1.7,    2.2,    3.0,    1.8,    0.0,   -3.1,   -8.1,  999.0,   -6.5,  999.0,  999.0,  999.0,  999.0,  999.0,  999.0,  999.0,  999.0,  999.0,  999.0,  999.0,  999.0,  999.0,  999.0,  999.0,  999.0,  999.0,  999.0,  999.0,  999.0,  999.0,  999.0,  999.0,  999.0,  999.0,  999.0,  999.0,  999.0,  999.0,  999.0,  999.0,  999.0,  999.0,  999.0,  999.0,  999.0,  999.0,  999.0,  999.0,  999.0,  999.0,  999.0,  999.0,  999.0,  999.0,  999.0,  999.0,  999.0
2005/10/09 12:00,  999.0,  999.0,    0.6,    1.9,    0.1,    1.8,    2.4,    3.0,    2.6,    2.5,    0.5,   -4.0,   -9.0,   -8.7,   -8.6,  999.0,  999.0,  999.0,  999.0,  999.0,  999.0,  999.0,  999.0,  999.0,  999.0,  999.0,  999.0,  999.0,  999.0,  999.0,  999.0,  999.0,  999.0,  999.0,  999.0,  999.0,  999.0,  999.0,  999.0,  999.0,  999.0,  999.0,  999.0,  999.0,  999.0,  999.0,  999.0,  999.0,  999.0,  999.0,  999.0,  999.0,  999.0,  999.0,  999.0,  999.0,  999.0,  999.0,  999.0,  999.0,  999.0,  999.0,  999.0
2005/10/09 12:10,  999.0,   -0.2,    1.3,    1.3,    1.4,    2.2,    2.7,    2.9,    3.2,    1.9,   -0.5,   -3.2,   -8.0,   -8.8,   -8.4,  999.0,  999.0,  999.0,  999.0,  999.0,  999.0,  999.0,  999.0,  999.0,  999.0,  999.0,  999.0,  999.0,  999.0,  999.0,  999.0,  999.0,  999.0,  999.0,  999.0,  999.0,  999.0,  999.0,  999.0,  999.0,  999.0,  999.0,  999.0,  999.0,  999.0,  999.0,  999.0,  999.0,  999.0,  999.0,  999.0,  999.0,  999.0,  999.0,  999.0,  999.0,  999.0,  999.0,  999.0,  999.0,  999.0,  999.0,  999.0
2005/10/09 12:20,  999.0,   -1.3,    1.0,   -0.5,    0.3,    0.5,    3.0,    3.3,    3.2,    1.6,   -0.9,   -2.8,   -8.1,   -9.3,   -8.4,  999.0,  999.0,  999.0,  999.0,  999.0,  999.0,  999.0,  999.0,  999.0,  999.0,  999.0,  999.0,  999.0,  999.0,  999.0,  999.0,  999.0,  999.0,  999.0,  999.0,  999.0,  999.0,  999.0,  999.0,  999.0,  999.0,  999.0,  999.0,  999.0,  999.0,  999.0,  999.0,  999.0,  999.0,  999.0,  999.0,  999.0,  999.0,  999.0,  999.0,  999.0,  999.0,  999.0,  999.0,  999.0,  999.0,  999.0,  999.0
2005/10/09 12:30,  999.0,   -0.9,   -0.2,    1.6,    1.4,    2.0,    2.2,    3.5,    4.0,    1.6,   -0.9,   -4.6,   -7.7,   -9.2,   -8.3,   -5.9,  999.0,  999.0,  999.0,  999.0,  999.0,  999.0,  999.0,  999.0,  999.0,  999.0,  999.0,  999.0,  999.0,  999.0,  999.0,  999.0,  999.0,  999.0,  999.0,  999.0,  999.0,  999.0,  999.0,  999.0,  999.0,  999.0,  999.0,  999.0,  999.0,  999.0,  999.0,  999.0,  999.0,  999.0,  999.0,  999.0,  999.0,  999.0,  999.0,  999.0,  999.0,  999.0,  999.0,  999.0,  999.0,  999.0,  999.0
2005/10/09 12:40,  999.0,    0.6,    1.6,    3.3,    2.4,    1.3,    2.0,    3.0,    2.8,    2.3,   -2.1,   -5.7,   -8.7,  -10.0,   -9.4,  999.0,  999.0,  999.0,  999.0,  999.0,  999.0,  999.0,  999.0,  999.0,  999.0,  999.0,  999.0,  999.0,  999.0,  999.0,  999.0,  999.0,  999.0,  999.0,  999.0,  999.0,  999.0,  999.0,  999.0,  999.0,  999.0,  999.0,  999.0,  999.0,  999.0,  999.0,  999.0,  999.0,  999.0,  999.0,  999.0,  999.0,  999.0,  999.0,  999.0,  999.0,  999.0,  999.0,  999.0,  999.0,  999.0,  999.0,  999.0
2005/10/09 12:50,  999.0,    0.1,    0.7,   -1.0,    1.3,    1.9,    2.4,    3.5,    2.6,    1.6,   -2.0,   -5.0,   -7.9,   -9.7,   -8.8,  999.0,  999.0,  999.0,  999.0,  999.0,  999.0,  999.0,  999.0,  999.0,  999.0,  999.0,  999.0,  999.0,  999.0,  999.0,  999.0,  999.0,  999.0,  999.0,  999.0,  999.0,  999.0,  999.0,  999.0,  999.0,  999.0,  999.0,  999.0,  999.0,  999.0,  999.0,  999.0,  999.0,  999.0,  999.0,  999.0,  999.0,  999.0,  999.0,  999.0,  999.0,  999.0,  999.0,  999.0,  999.0,  999.0,  999.0,  999.0
2005/10/09 13:00,  999.0,    0.5,   -0.2,    1.5,    1.6,    2.3,    3.0,    3.4,    2.3,    0.9,   -1.8,   -4.5,   -8.8,  -10.4,   -9.3,  999.0,  999.0,  999.0,  999.0,  999.0,  999.0,  999.0,  999.0,  999.0,  999.0,  999.0,  999.0,  999.0,  999.0,  999.0,  999.0,  999.0,  999.0,  999.0,  999.0,  999.0,  999.0,  999.0,  999.0,  999.0,  999.0,  999.0,  999.0,  999.0,  999.0,  999.0,  999.0,  999.0,  999.0,  999.0,  999.0,  999.0,  999.0,  999.0,  999.0,  999.0,  999.0,  999.0,  999.0,  999.0,  999.0,  999.0,  999.0
2005/10/09 13:10,  999.0,  999.0,    0.6,    2.3,    1.6,    1.6,    3.0,    4.4,    4.9,    1.1,   -1.1,   -4.4,   -9.0,  -10.6,   -9.6,  999.0,  999.0,  999.0,  999.0,  999.0,  999.0,  999.0,  999.0,  999.0,  999.0,  999.0,  999.0,  999.0,  999.0,  999.0,  999.0,  999.0,  999.0,  999.0,  999.0,  999.0,  999.0,  999.0,  999.0,  999.0,  999.0,  999.0,  999.0,  999.0,  999.0,  999.0,  999.0,  999.0,  999.0,  999.0,  999.0,  999.0,  999.0,  999.0,  999.0,  999.0,  999.0,  999.0,  999.0,  999.0,  999.0,  999.0,  999.0
2005/10/09 13:20,  999.0,    0.3,    1.6,    3.6,    1.7,    3.0,    2.2,    2.1,    3.6,    1.4,   -0.3,   -4.0,   -8.2,  -10.7,   -9.9,  999.0,  999.0,  999.0,  999.0,  999.0,  999.0,  999.0,  999.0,  999.0,  999.0,  999.0,  999.0,  999.0,  999.0,  999.0,  999.0,  999.0,  999.0,  999.0,  999.0,  999.0,  999.0,  999.0,  999.0,  999.0,  999.0,  999.0,  999.0,  999.0,  999.0,  999.0,  999.0,  999.0,  999.0,  999.0,  999.0,  999.0,  999.0,  -15.2,  999.0,  999.0,  999.0,  999.0,  999.0,  999.0,  999.0,  999.0,  999.0
2005/10/09 13:30,  999.0,    1.6,    1.2,    1.6,    2.7,    0.1,    1.0,    2.2,    2.4,    2.0,   -0.6,   -4.7,   -9.7,  -10.8,  -10.3,  999.0,  999.0,  999.0,  999.0,  999.0,  999.0,  999.0,  999.0,  999.0,  999.0,  999.0,  999.0,  999.0,  999.0,  999.0,  999.0,  999.0,  999.0,  999.0,  999.0,  999.0,  999.0,  999.0,  999.0,  999.0,  999.0,  999.0,  999.0,  999.0,  999.0,  999.0,  999.0,  999.0,  999.0,  999.0,  999.0,  999.0,  -15.0,  -15.8,  -16.1,  -16.2,  999.0,  999.0,  999.0,  999.0,  999.0,  999.0,  999.0
2005/10/09 13:40,  999.0,    2.6,    2.7,    5.4,    1.6,    2.8,    3.1,  999.0,    2.3,    1.2,   -0.8,   -5.4,   -9.3,  -10.5,   -9.7,   -9.5,  999.0,  999.0,  999.0,  999.0,  999.0,  999.0,  999.0,  999.0,  999.0,  999.0,  999.0,  999.0,  999.0,  999.0,  999.0,  999.0,  999.0,  999.0,  999.0,  999.0,  999.0,  999.0,  999.0,  999.0,  999.0,  999.0,  999.0,  999.0,  999.0,  999.0,  999.0,  999.0,  999.0,  -12.4,  -13.1,  -14.5,  -15.1,  -15.7,  -15.8,  -16.2,  -16.1,  999.0,  999.0,  999.0,  999.0,  999.0,  999.0
2005/10/09 13:50,  999.0,    1.4,    2.0,    1.2,    1.5,    1.4,    2.3,    2.9,    2.2,    1.0,   -1.4,   -5.7,   -8.9,  -10.4,  -10.0,   -9.4,  999.0,  999.0,  999.0,  999.0,  999.0,  999.0,  999.0,  999.0,  999.0,  999.0,  999.0,  999.0,  999.0,  999.0,  999.0,  999.0,  999.0,  999.0,  999.0,  999.0,  999.0,  999.0,  999.0,  999.0,  999.0,  999.0,  999.0,  999.0,  999.0,  999.0,  999.0,  -13.0,  -13.0,  -12.7,  -13.3,  -14.9,  -15.3,  -15.8,  -16.1,  -16.0,  -16.8,  999.0,  999.0,  999.0,  999.0,  999.0,  999.0
2005/10/09 14:00,  999.0,    0.8,    1.0,    1.4,    1.4,    0.8,    2.0,    2.5,    1.8,    1.0,   -1.6,   -5.2,   -8.8,  -10.3,  -10.2,   -9.3,  999.0,  999.0,  999.0,  999.0,  999.0,  999.0,  999.0,  999.0,  -54.8,  -54.8,  -54.7,  -54.8,  -54.8,  -54.8,  -54.8,  -54.8,  -54.8,  -54.9,  -54.8,  -54.8,  -54.7,  -54.9,  999.0,  999.0,  999.0,  999.0,  999.0,  999.0,  999.0,  999.0,  999.0,  -12.5,  -12.6,  -13.1,  -14.0,  -15.1,  999.0,  -16.1,  -16.0,  -16.0,  999.0,  999.0,  999.0,  999.0,  999.0,  999.0,  999.0
2005/10/09 14:10,  999.0,    0.3,    0.9,    0.8,    0.6,   -0.1,    1.4,    2.3,    1.5,   -0.4,   -2.8,   -6.5,   -8.5,  -10.6,   -9.8,   -9.0,  999.0,  999.0,  999.0,  999.0,  999.0,  999.0,  999.0,  999.0,  999.0,  -55.0,  -55.0,  -55.1,  -55.0,  -55.1,  -55.1,  -55.1,  -55.0,  -55.2,  -55.0,  -55.0,  999.0,  999.0,  999.0,  999.0,  999.0,  999.0,  999.0,  999.0,  999.0,  -13.5,  -13.8,  -13.7,  -12.8,  -13.4,  -14.0,  -14.7,  -14.9,  -16.0,  999.0,  999.0,  999.0,  999.0,  999.0,  999.0,  999.0,  999.0,  999.0
2005/10/09 14:20,  999.0,    0.8,    1.2,    1.4,    1.5,    0.3,    1.9,    3.0,    1.6,   -0.0,   -2.2,   -6.6,   -8.6,  -10.9,  -10.0,  999.0,  999.0,  999.0,  999.0,  999.0,  999.0,  999.0,  999.0,  -54.9,  -54.9,  -54.9,  -54.9,  -54.9,  -54.9,  -54.9,  -54.9,  -54.9,  -54.9,  -54.9,  -54.9,  -54.9,  -55.0,  -54.9,  -54.9,  -55.0,  -55.1,  999.0,  999.0,  999.0,  999.0,  999.0,  999.0,  999.0,  999.0,  999.0,  999.0,  999.0,  999.0,  999.0,  999.0,  999.0,  999.0,  999.0,  999.0,  999.0,  999.0,  999.0,  999.0
2005/10/09 14:30,  999.0,    0.8,    1.6,    1.1,    0.7,    1.4,    1.7,    2.2,    0.6,   -0.9,  999.0,   -7.0,   -9.3,  999.0,  999.0,  -10.1,  999.0,  999.0,  999.0,  999.0,  999.0,  999.0,  999.0,  -54.6,  -54.7,  -54.7,  -54.7,  -54.7,  -54.7,  -54.7,  -54.7,  -54.7,  -54.7,  -54.8,  -54.7,  -54.7,  -54.8,  -54.8,  -54.6,  -54.6,  -54.9,  -54.7,  -54.8,  -54.6,  -55.0,  999.0,  999.0,  999.0,  999.0,  999.0,  999.0,  999.0,  999.0,  999.0,  999.0,  999.0,  999.0,  999.0,  999.0,  999.0,  999.0,  999.0,  999.0
2005/10/09 14:40,  999.0,   -0.2,    1.5,    2.0,    1.3,    1.6,    2.4,  999.0,    0.7,   -1.1,   -4.2,   -7.3,   -9.0,  -10.9,  -10.4,  -10.1,  999.0,  999.0,  999.0,  999.0,  999.0,  999.0,  999.0,  999.0,  -54.8,  -54.7,  -54.7,  -54.7,  -54.8,  -54.8,  -54.7,  -54.5,  -54.6,  -54.7,  -54.8,  -54.7,  -54.7,  -54.8,  -54.7,  -54.8,  999.0,  999.0,  -54.5,  999.0,  999.0,  999.0,  999.0,  999.0,  999.0,  999.0,  999.0,  999.0,  999.0,  999.0,  999.0,  999.0,  999.0,  999.0,  999.0,  999.0,  999.0,  999.0,  999.0
2005/10/09 14:50,  999.0,    0.6,    0.8,    1.8,    1.8,    1.6,    3.1,    2.0,    0.8,   -1.0,   -3.8,   -6.6,   -8.9,  -10.1,  -10.1,   -9.8,  999.0,  999.0,  999.0,  999.0,  999.0,  999.0,  -54.5,  -54.7,  -54.8,  -54.8,  -54.7,  -54.7,  -54.7,  -54.8,  -54.8,  -54.7,  -54.6,  -54.8,  -54.6,  -54.8,  -54.6,  -54.9,  -54.8,  -54.8,  -54.5,  999.0,  999.0,  999.0,  999.0,  999.0,  999.0,  999.0,  999.0,  999.0,  999.0,  999.0,  999.0,  999.0,  999.0,  999.0,  999.0,  999.0,  999.0,  999.0,  999.0,  999.0,  999.0
2005/10/09 15:00,  999.0,    1.0,    1.2,    1.0,    1.4,    2.2,    3.5,    1.3,    0.5,   -1.3,   -4.0,   -7.4,   -9.4,  -10.4,  -10.1,  999.0,  999.0,  999.0,  999.0,  999.0,  999.0,  999.0,  999.0,  999.0,  -55.1,  -54.9,  -54.9,  999.0,  -54.7,  -54.8,  -54.8,  -54.8,  999.0,  -55.1,  999.0,  -54.9,  999.0,  999.0,  -54.8,  -55.2,  999.0,  -54.4,  999.0,  999.0,  999.0,  999.0,  999.0,  999.0,  999.0,  999.0,  999.0,  999.0,  999.0,  999.0,  999.0,  999.0,  999.0,  999.0,  999.0,  999.0,  999.0,  999.0,  999.0
2005/10/09 15:10,  999.0,    1.0,    1.5,    1.3,    1.4,    1.3,    3.3,    1.5,    1.3,   -0.4,   -2.3,   -6.8,   -8.8,  -10.2,   -9.8,  999.0,  999.0,  999.0,  999.0,  999.0,  999.0,  999.0,  999.0,  999.0,  -54.7,  -54.8,  -54.8,  -54.7,  -54.8,  -54.8,  -54.8,  -54.7,  -54.8,  -54.8,  -54.7,  -54.8,  -54.8,  -54.9,  999.0,  999.0,  999.0,  999.0,  999.0,  999.0,  999.0,  999.0,  999.0,  999.0,  999.0,  -14.0,  -14.8,  -14.7,  999.0,  999.0,  999.0,  999.0,  999.0,  999.0,  999.0,  999.0,  999.0,  999.0,  999.0
2005/10/09 15:20,  999.0,    0.9,    2.0,    3.1,    2.4,    2.0,    2.5,    2.6,  999.0,   -1.0,   -3.4,   -7.4,   -9.3,  -10.4,   -9.8,  999.0,  999.0,  999.0,  999.0,  999.0,  999.0,  999.0,  999.0,  -54.8,  -54.7,  -54.7,  -54.7,  -54.8,  -54.9,  -54.7,  -54.8,  -54.8,  -54.8,  -54.8,  999.0,  999.0,  -54.9,  -54.7,  -55.0,  -54.9,  -55.1,  -54.7,  999.0,  999.0,  999.0,  999.0,  999.0,  999.0,  999.0,  999.0,  999.0,  999.0,  999.0,  999.0,  999.0,  999.0,  999.0,  999.0,  999.0,  999.0,  999.0,  999.0,  999.0
2005/10/09 15:30,  999.0,    1.1,    1.8,    1.6,    2.1,    2.1,    2.1,    1.9,    1.0,   -0.6,   -2.0,   -6.3,   -8.5,  -10.5,  -10.0,  999.0,  999.0,  999.0,  999.0,  999.0,  999.0,  999.0,  999.0,  999.0,  -54.9,  -54.9,  -55.0,  -54.8,  -54.8,  -55.0,  -55.0,  -55.0,  -54.9,  -55.0,  -55.0,  999.0,  -55.2,  -54.8,  999.0,  999.0,  -55.3,  999.0,  999.0,  999.0,  999.0,  999.0,  999.0,  999.0,  999.0,  999.0,  999.0,  999.0,  999.0,  999.0,  999.0,  999.0,  999.0,  999.0,  999.0,  999.0,  999.0,  999.0,  999.0
2005/10/09 15:40,  999.0,    0.5,    1.9,    2.5,    2.7,    1.8,    2.5,    2.4,    1.1,   -1.3,   -2.3,   -5.4,   -7.7,   -9.6,   -9.8,  999.0,  999.0,  999.0,  999.0,  999.0,  999.0,  999.0,  999.0,  999.0,  999.0,  -54.8,  -55.2,  -55.0,  -54.8,  -54.9,  -54.9,  -54.8,  -54.8,  -55.0,  -54.7,  -54.9,  -54.8,  -55.0,  -55.0,  999.0,  -55.2,  -55.3,  -55.0,  -55.4,  -55.0,  999.0,  -55.3,  999.0,  999.0,  999.0,  999.0,  999.0,  999.0,  999.0,  999.0,  999.0,  999.0,  999.0,  999.0,  999.0,  999.0,  999.0,  999.0
2005/10/09 15:50,  999.0,   -0.3,   -0.5,   -0.5,    0.1,    0.9,    0.1,   -0.0,  999.0,  999.0,    3.0,    8.3,   10.8,   12.4,  999.0,   10.4,  999.0,  999.0,  999.0,  999.0,  999.0,  999.0,  999.0,  999.0,  999.0,   54.9,   55.0,   55.3,   55.2,  999.0,  999.0,   55.1,   55.2,  999.0,  999.0,  999.0,  999.0,  999.0,  999.0,  999.0,  999.0,  999.0,  999.0,  999.0,  999.0,  999.0,  999.0,  999.0,  999.0,  999.0,  999.0,  999.0,  999.0,  999.0,  999.0,  999.0,  999.0,  999.0,  999.0,  999.0,  999.0,  999.0,  999.0
2005/10/09 16:00,  999.0,   -0.5,   -0.7,   -0.8,    0.0,    1.6,    2.0,    0.2,  999.0,    1.4,    5.8,    9.3,   11.6,   12.4,   11.6,  999.0,  999.0,  999.0,  999.0,  999.0,  999.0,  999.0,  999.0,   54.5,   54.5,   54.6,   54.6,   54.7,   54.6,   54.6,   54.8,   54.6,   54.6,   54.5,   54.6,   54.7,   54.6,   54.6,   54.8,   54.7,   54.7,  999.0,  999.0,  999.0,  999.0,  999.0,  999.0,  999.0,  999.0,  999.0,  999.0,  999.0,  999.0,  999.0,  999.0,  999.0,  999.0,  999.0,  999.0,  999.0,  999.0,  999.0,  999.0
2005/10/09 16:10,  999.0,   -1.0,   -0.8,  999.0,    0.8,    1.7,    0.7,    0.4,   -0.1,    0.8,    6.0,    9.5,   11.1,   12.5,   12.0,   11.0,  999.0,  999.0,  999.0,  999.0,  999.0,  999.0,  999.0,  999.0,   54.6,   54.8,   54.8,   54.8,   54.8,   54.8,   54.8,   54.8,   54.8,   54.7,   54.8,   55.0,   54.9,   54.9,   54.8,   55.0,   54.8,  999.0,  999.0,  999.0,  999.0,  999.0,  999.0,  999.0,  999.0,  999.0,  999.0,  999.0,  999.0,  999.0,  999.0,  999.0,  999.0,  999.0,  999.0,  999.0,   54.3,  999.0,  999.0
2005/10/09 16:20,  999.0,   -0.6,   -0.5,    0.1,    0.8,    2.0,    1.1,  999.0,  999.0,    1.4,    6.4,    9.6,   11.2,   11.0,  999.0,  999.0,   10.6,  999.0,  999.0,  999.0,  999.0,  999.0,  999.0,   54.8,   54.8,   54.7,   54.8,   54.8,   54.8,   54.8,   54.8,   54.9,   54.9,   54.8,   54.8,   54.8,   54.9,   54.8,   54.8,   54.9,   54.7,   54.7,   54.8,   54.9,   55.0,  999.0,   54.9,   54.8,  999.0,  999.0,  999.0,  999.0,  999.0,  999.0,  999.0,  999.0,  999.0,  999.0,  999.0,  999.0,  999.0,  999.0,  999.0
2005/10/09 16:30,  999.0,   -1.0,   -0.5,    0.1,    1.4,    2.6,    1.8,    0.8,  999.0,    2.2,    6.4,    9.9,   11.3,   11.2,   10.3,   10.7,   10.7,  999.0,  999.0,  999.0,  999.0,  999.0,  999.0,  999.0,  999.0,  999.0,   54.9,   55.0,   55.0,   55.0,   55.1,   55.0,   55.1,   55.1,   55.1,   55.0,   55.0,   55.0,   55.2,   55.1,   55.1,   55.3,   55.2,   55.2,   55.2,   55.2,  999.0,  999.0,   55.0,  999.0,  999.0,   55.5,  999.0,  999.0,  999.0,  999.0,  999.0,  999.0,  999.0,  999.0,  999.0,  999.0,  999.0
2005/10/09 16:40,  999.0,   -1.0,   -1.1,   -0.3,    1.6,    2.7,    1.6,    0.8,    0.2,    2.8,    7.6,   10.2,   11.5,   11.2,   11.1,   11.1,   11.0,  999.0,  999.0,  999.0,  999.0,  999.0,  999.0,  999.0,  999.0,  999.0,  999.0,   55.0,   55.0,   55.0,   55.0,   55.0,   55.0,   55.0,   55.0,   55.0,   55.1,   55.0,   55.1,   55.1,   55.1,   55.1,   54.9,   55.1,   55.0,   55.1,   55.1,  999.0,   55.4,   55.4,   55.1,   55.1,   54.9,  999.0,  999.0,  999.0,  999.0,  999.0,  999.0,  999.0,  999.0,  999.0,  999.0
2005/10/09 16:50,  999.0,   -0.9,   -0.8,   -0.1,    1.8,    2.5,    1.1,    0.5,    0.4,    1.9,    6.6,    9.7,   10.9,   10.2,    9.9,   10.2,   10.0,  999.0,  999.0,  999.0,  999.0,  999.0,  999.0,  999.0,  999.0,  999.0,  999.0,  999.0,   55.1,   55.1,   55.0,   55.1,   55.1,   55.1,   55.1,   55.1,   55.1,   55.2,   55.2,   55.2,   55.1,   55.2,   55.2,   55.1,   55.3,   55.2,   55.2,   55.1,   54.9,   55.4,   55.0,  999.0,  999.0,  999.0,  999.0,  999.0,  999.0,  999.0,  999.0,  999.0,  999.0,  999.0,  999.0
2005/10/09 17:00,  999.0,   -1.1,   -0.8,   -0.4,    1.8,    2.5,    1.4,    0.3,    0.3,    1.9,    6.8,    9.3,   10.7,   10.2,    8.9,    9.6,    9.6,  999.0,  999.0,  999.0,  999.0,  999.0,  999.0,  999.0,  999.0,  999.0,   55.0,   55.0,   55.0,   55.1,   55.0,   55.1,   55.0,   55.1,   55.1,   55.1,   55.2,   55.1,   55.1,   55.2,   55.1,   55.2,   55.1,   55.3,   55.3,   55.2,  999.0,  999.0,  999.0,   55.7,  999.0,   55.1,  999.0,  999.0,  999.0,  999.0,  999.0,  999.0,  999.0,  999.0,  999.0,  999.0,  999.0
2005/10/09 17:10,  999.0,   -0.2,   -0.5,   -0.3,    1.1,    2.5,    1.7,  999.0,  999.0,    2.4,    7.3,    8.9,   10.0,  999.0,    8.0,  999.0,  999.0,    8.3,  999.0,  999.0,  999.0,  999.0,  999.0,  999.0,  999.0,  999.0,  999.0,   55.0,  999.0,   55.0,   55.0,   55.0,   55.0,   54.9,   55.0,   55.0,   55.0,   55.0,   55.1,   54.8,  999.0,  999.0,  999.0,  999.0,  999.0,   36.9,  999.0,  999.0,  999.0,  999.0,  999.0,  999.0,  999.0,  999.0,  999.0,  999.0,  999.0,  999.0,  999.0,  999.0,  999.0,  999.0,  999.0
2005/10/09 17:20,  999.0,   -0.6,  999.0,   -0.5,    1.1,    2.8,    2.0,    0.7,    0.2,    3.3,    7.7,    9.6,    9.2,    8.7,    7.9,    7.9,    8.6,    8.3,  999.0,  999.0,  999.0,  999.0,  999.0,  999.0,  999.0,   55.1,   55.1,   55.1,   55.1,   55.1,   55.1,   55.1,   55.1,   55.1,   55.1,   55.1,   55.2,   55.2,   55.1,   55.1,   55.2,   55.2,   55.1,   55.3,  999.0,  999.0,   55.4,   55.2,  999.0,  999.0,  999.0,  999.0,  999.0,  999.0,  999.0,  999.0,  999.0,  999.0,  999.0,  999.0,  999.0,  999.0,  999.0
2005/10/09 17:30,  999.0,    0.1,  999.0,   -0.7,    0.2,    2.5,    1.9,    0.8,    1.2,    3.8,    7.3,    9.6,    9.5,    8.4,    7.7,    8.3,    9.0,  999.0,  999.0,  999.0,  999.0,  999.0,  999.0,  999.0,  999.0,   55.0,   55.0,   55.1,   55.1,   55.0,   55.0,   55.0,   55.0,   55.1,   55.1,   55.1,   55.0,   55.1,   55.1,   55.2,   55.1,   55.1,   55.1,   55.4,   55.1,   55.0,   55.1,   55.4,  999.0,  999.0,   55.2,  999.0,  999.0,  999.0,  999.0,  999.0,  999.0,  999.0,  999.0,  999.0,  999.0,  999.0,  999.0
2005/10/09 17:40,  999.0,   -2.4,  999.0,   -1.2,    0.3,    1.3,  999.0,   -0.5,    2.1,    5.8,    8.7,    9.5,    7.6,    7.4,    7.6,  999.0,  999.0,    8.6,  999.0,  999.0,  999.0,  999.0,  999.0,  999.0,   55.2,   55.1,   55.0,   55.1,   55.0,   55.1,   55.1,   55.0,   55.0,   55.1,   55.1,   55.2,   55.1,   55.1,   55.1,   55.1,   55.1,   55.2,   55.2,   55.1,   55.2,   55.2,   55.3,   55.4,   55.2,  999.0,  999.0,   55.3,  999.0,  999.0,  999.0,  999.0,  999.0,  999.0,  999.0,  999.0,  999.0,  999.0,  999.0
2005/10/09 17:50,  999.0,   -2.2,   -2.7,   -1.7,    0.1,    0.5,  999.0,    0.4,    1.9,    5.3,    8.2,    8.8,    9.2,    8.9,    8.2,    7.9,    8.6,    8.9,  999.0,  999.0,  999.0,  999.0,  999.0,   55.2,   55.1,   55.1,   55.2,   55.1,   55.1,   55.1,   55.1,   55.1,   55.2,   55.2,   55.1,   55.2,   55.2,   55.1,   55.2,   55.2,   55.2,   55.3,   55.3,   55.3,   55.3,   55.4,  999.0,   55.5,   55.4,  999.0,  999.0,  999.0,  999.0,  999.0,  999.0,  999.0,  999.0,  999.0,  999.0,  999.0,  999.0,  999.0,  999.0
2005/10/09 18:00,  999.0,  999.0,  999.0,  999.0,  999.0,    1.4,  999.0,  999.0,    1.7,    4.9,    7.6,    9.6,    8.3,    8.4,    8.1,    7.9,  999.0,    9.1,  999.0,  999.0,  999.0,  999.0,  999.0,  999.0,   55.1,   55.0,   55.0,   55.0,   55.1,   55.1,   55.1,   55.1,   55.1,   55.1,   55.1,   55.2,   55.1,   55.0,   55.2,   55.2,   54.9,   55.1,   55.2,   55.2,   27.7,   36.8,  999.0,   55.1,   55.0,  999.0,  999.0,  999.0,  999.0,  999.0,  999.0,  999.0,  999.0,  999.0,  999.0,  999.0,  999.0,  999.0,  999.0
2005/10/09 18:10,  999.0,   -0.5,   -2.1,  999.0,   -2.2,  999.0,  999.0,  999.0,    0.1,    2.8,    6.9,    8.4,  999.0,    7.4,    7.9,    7.9,    8.6,    8.9,  999.0,  999.0,  999.0,  999.0,  999.0,  999.0,  999.0,   55.0,   55.0,   55.0,   55.1,   55.1,   55.1,   55.1,   55.1,   55.1,   55.1,   55.1,   55.2,   55.1,   55.2,   55.2,   55.2,   55.2,   55.2,   55.2,   55.2,   55.4,   55.3,   55.1,   55.6,  999.0,  999.0,  999.0,  999.0,  999.0,  999.0,  999.0,  999.0,  999.0,  999.0,  999.0,  999.0,  999.0,  999.0
2005/10/09 18:20,  999.0,   -0.7,   -0.7,   -0.4,   -0.5,   -0.7,  999.0,  999.0,   -1.3,  999.0,    6.2,  999.0,  999.0,    8.0,    8.4,    7.7,    8.0,    8.6,  999.0,  999.0,  999.0,  999.0,  999.0,  999.0,  999.0,  999.0,   55.0,   55.1,   55.1,   55.2,   55.1,   55.1,   55.2,   55.1,   55.1,   55.1,   55.2,   55.1,   55.2,   55.1,   55.1,   55.1,   55.2,   55.1,   55.0,   55.3,   55.4,   55.6,   55.2,  999.0,   55.6,  999.0,  999.0,  999.0,  999.0,  999.0,  999.0,  999.0,  999.0,  999.0,  999.0,  999.0,  999.0
2005/10/09 18:30,  999.0,   -0.7,   -1.5,   -1.7,   -1.6,  999.0,  999.0,  999.0,  999.0,  999.0,    6.4,    1.3,  999.0,    7.6,    8.0,    7.2,  999.0,    8.6,  999.0,  999.0,  999.0,  999.0,  999.0,  999.0,  999.0,   55.0,   55.1,   55.1,   55.1,   55.1,   55.0,   55.1,   55.1,   55.1,   55.1,   55.0,   55.1,   55.1,   55.1,   55.1,   55.1,   55.3,   55.2,   55.3,   55.3,   55.4,   55.3,  999.0,   37.2,   55.7,   55.5,  999.0,  999.0,  999.0,  999.0,  999.0,  999.0,  999.0,  999.0,  999.0,  999.0,  999.0,  999.0
2005/10/09 18:40,  999.0,   -0.5,  999.0,  999.0,    0.6,  999.0,  999.0,  999.0,  999.0,  999.0,  999.0,    6.8,    6.2,    8.3,    8.1,    7.2,    7.8,    8.6,  999.0,  999.0,  999.0,  999.0,  999.0,  999.0,  999.0,   55.1,   55.0,   55.0,   55.1,   55.0,   55.0,   55.1,   55.1,   55.1,   55.0,   55.1,   55.0,   55.1,   55.1,   55.1,   55.1,   55.1,   55.2,   55.0,  999.0,  999.0,   55.2,   54.8,  999.0,   55.3,   56.0,  999.0,   55.5,  999.0,  999.0,  999.0,  999.0,  999.0,  999.0,  999.0,  999.0,  999.0,  999.0
2005/10/09 18:50,  999.0,    0.3,   -1.6,   -1.5,   -0.1,   -1.6,  999.0,  999.0,  999.0,  999.0,    3.8,  999.0,    5.5,    8.7,    8.1,    8.9,    8.6,    7.6,    8.3,  999.0,  999.0,  999.0,  999.0,  999.0,  999.0,  999.0,   55.0,   55.0,   55.0,   55.0,   55.0,   55.0,   55.0,   55.0,   55.0,   55.0,   55.0,  999.0,   55.0,   55.0,   55.0,   55.1,   55.0,   55.0,   55.2,   55.1,   55.2,   55.1,   55.4,   55.2,   55.3,   55.2,   55.0,  999.0,  999.0,  999.0,  999.0,  999.0,  999.0,  999.0,  999.0,  999.0,  999.0
2005/10/09 19:00,  999.0,    0.4,   -1.1,   -1.0,    0.4,  999.0,  999.0,  999.0,  999.0,  999.0,  999.0,  999.0,    8.3,    8.7,    8.3,    8.3,    8.9,    9.2,  999.0,  999.0,  999.0,  999.0,  999.0,  999.0,  999.0,  999.0,   55.1,   55.1,   55.1,   55.2,   55.1,   55.2,   55.2,   55.2,   55.2,   55.3,   55.2,   55.3,   55.2,   55.2,   55.2,   55.2,   55.3,  999.0,   51.9,   55.3,  999.0,   55.2,  999.0,   55.4,  999.0,  999.0,  999.0,  999.0,  999.0,  999.0,  999.0,  999.0,  999.0,  999.0,  999.0,  999.0,  999.0
2005/10/09 19:10,  999.0,   -0.6,   -1.3,   -1.6,    0.7,  999.0,   -2.2,   -1.4,   -0.6,  999.0,    1.0,    6.3,    4.8,    7.5,    8.4,    7.9,    7.9,    8.7,    7.7,  999.0,  999.0,  999.0,  999.0,  999.0,  999.0,  999.0,   54.9,   55.1,   55.0,   55.0,   55.2,   41.3,   48.2,   48.2,   55.1,   55.1,   55.2,   55.1,   55.1,   55.2,   55.2,  999.0,  999.0,   29.6,   18.7,   55.2,   41.6,  999.0,  999.0,  999.0,  999.0,  999.0,  999.0,  999.0,  999.0,  999.0,  999.0,  999.0,  999.0,  999.0,  999.0,  999.0,  999.0
2005/10/09 19:20,  999.0,    1.8,  999.0,   -0.7,  999.0,   -3.2,   -3.1,  999.0,  999.0,  999.0,    5.3,    7.2,  999.0,    7.9,    7.9,    7.6,    7.7,  999.0,  999.0,  999.0,  999.0,  999.0,  999.0,  999.0,  999.0,  999.0,   55.1,  999.0,  999.0,   55.1,   55.0,   55.2,   54.7,   55.1,   55.0,  999.0,   55.1,  999.0,   46.0,   55.2,  999.0,  999.0,   -0.0,    0.0,  999.0,  999.0,   27.7,   37.0,   18.3,   27.6,  999.0,  999.0,   55.6,  999.0,  999.0,  999.0,  999.0,  999.0,  999.0,  999.0,  999.0,  999.0,  999.0
2005/10/09 19:30,  999.0,   -0.0,   -1.5,   -1.4,   -0.8,   -1.7,   -2.1,   -3.2,   -0.4,    3.7,    3.2,    5.9,  999.0,    7.0,    6.3,  999.0,    7.3,  999.0,  999.0,  999.0,  999.0,  999.0,  999.0,  999.0,  999.0,   55.1,   55.1,   55.0,   55.1,   55.2,   55.2,   55.2,   55.1,   55.2,   55.2,   55.1,   55.2,   55.2,   55.2,   55.3,   45.9,  999.0,   45.0,   35.1,   46.6,   46.6,  999.0,  999.0,  999.0,  999.0,  999.0,  999.0,  999.0,  999.0,  999.0,  999.0,  999.0,  999.0,  999.0,  999.0,  999.0,  999.0,  999.0
2005/10/09 19:40,  999.0,   -0.1,   -1.1,  999.0,  999.0,  999.0,  999.0,    1.2,   -0.2,    3.1,    6.2,    4.3,    6.1,    7.2,    6.5,    7.7,    7.5,  999.0,    8.4,  999.0,  999.0,  999.0,  999.0,  999.0,  999.0,  999.0,  999.0,  999.0,   55.0,   55.0,   55.1,   55.1,   55.1,   55.1,   55.1,   55.2,   55.1,   55.1,   55.1,   55.2,   55.2,   55.2,   55.2,   55.2,   55.2,   55.2,   55.4,   55.4,  999.0,   55.5,   55.5,   55.4,   55.2,  999.0,  999.0,  999.0,  999.0,  999.0,  999.0,  999.0,  999.0,  999.0,  999.0
2005/10/09 19:50,  999.0,    0.7,   -1.5,  999.0,  999.0,   -3.6,   -3.5,   -1.2,   -1.9,    1.5,    5.9,  999.0,    6.6,    7.1,    6.9,    6.8,    7.4,    8.1,    7.2,  999.0,  999.0,  999.0,  999.0,  999.0,  999.0,  999.0,  999.0,   55.0,   55.1,   55.1,   55.1,   55.1,   55.1,   55.1,   55.1,   55.1,   55.1,   55.1,   55.1,   55.1,   55.0,   55.2,   55.2,   55.1,   55.3,   55.2,   55.1,   55.3,   55.3,  999.0,  999.0,  999.0,   55.6,  999.0,  999.0,  999.0,  999.0,  999.0,  999.0,  999.0,  999.0,  999.0,  999.0
2005/10/09 20:00,  999.0,   -0.1,   -2.9,   -0.3,  999.0,  999.0,  999.0,   -3.2,    2.3,    3.3,    5.4,  999.0,    6.9,    7.1,    6.8,    6.9,    7.6,  999.0,  999.0,  999.0,  999.0,  999.0,  999.0,  999.0,  999.0,  999.0,  999.0,   55.2,   55.0,   55.1,   55.1,   55.1,   55.0,   55.2,  999.0,  999.0,   55.2,   55.1,   55.2,   55.3,   55.3,   55.3,   55.3,   55.4,  999.0,   55.5,   55.4,   55.2,   55.3,  999.0,  999.0,  999.0,   55.5,  999.0,  999.0,  999.0,  999.0,  999.0,  999.0,  999.0,  999.0,  999.0,  999.0
2005/10/09 20:10,  999.0,   -1.3,  999.0,   -1.4,   -2.8,  999.0,  999.0,  999.0,   -1.8,    1.7,    4.8,    5.5,    6.7,    8.0,    7.4,    6.6,    7.2,    9.0,    8.8,  999.0,  999.0,  999.0,  999.0,  999.0,  999.0,  999.0,  999.0,   55.1,   55.1,   55.1,   55.1,   55.1,   55.1,   55.1,   55.1,   55.1,   55.1,   55.0,   55.1,   55.1,   55.1,   55.1,   55.1,   55.2,   55.3,   55.2,   55.2,   55.4,   55.4,  999.0,   55.3,  999.0,  999.0,  999.0,  999.0,  999.0,  999.0,  999.0,  999.0,  999.0,  999.0,  999.0,  999.0
2005/10/09 20:20,  999.0,   -0.8,   -0.5,   -0.5,   -0.2,   -2.5,   -2.3,   -3.2,   -0.9,  999.0,  999.0,  999.0,  999.0,    7.0,    7.1,    5.8,    7.0,    8.7,    9.4,  999.0,  999.0,  999.0,  999.0,  999.0,  999.0,  999.0,  999.0,   27.5,  999.0,   55.1,   55.1,   41.4,   16.5,   22.0,   34.5,   22.1,   22.1,   16.5,   22.1,   22.1,   27.6,   25.3,   22.1,   27.6,   27.5,   22.2,   22.3,   20.9,   18.4,   18.5,   18.2,   37.0,   27.7,  999.0,  999.0,  999.0,  999.0,  999.0,  999.0,  999.0,  999.0,  999.0,  999.0
2005/10/09 20:30,  999.0,   -3.2,   -2.0,  999.0,  999.0,  999.0,  999.0,  999.0,  999.0,  999.0,  999.0,  999.0,    3.0,    7.9,    7.1,    6.6,    6.8,    8.3,    9.6,    9.6,  999.0,  999.0,  999.0,  999.0,  999.0,  999.0,  999.0,  999.0,  999.0,   55.1,  999.0,   55.2,   20.7,   20.7,   36.8,   36.8,   20.6,   18.4,   20.8,   20.6,   20.7,   27.7,   18.4,   18.4,   27.8,   18.5,   13.9,   -0.0,   18.5,   -0.3,  999.0,  999.0,   28.0,  999.0,  999.0,  999.0,  999.0,  999.0,    0.0,  999.0,  999.0,  999.0,  999.0
2005/10/09 20:40,  999.0,  999.0,  999.0,  999.0,  999.0,  999.0,  999.0,  999.0,  999.0,  999.0,  999.0,  999.0,  999.0,  999.0,  999.0,    6.2,  999.0,  999.0,   10.2,  999.0,  999.0,  999.0,  999.0,  999.0,  999.0,  999.0,  999.0,   55.0,   55.0,   54.9,   55.0,   55.2,   55.2,   55.1,   55.1,   55.2,   55.2,   55.2,   55.2,   55.1,   55.3,   55.1,   55.0,   55.2,   55.3,  999.0,   54.9,  999.0,  999.0,  999.0,  999.0,  999.0,  999.0,  999.0,  999.0,  999.0,  999.0,  999.0,  999.0,  999.0,  999.0,  999.0,  999.0
2005/10/09 20:50,  999.0,   -2.5,  999.0,    0.0,  999.0,   -5.1,   -8.8,  999.0,  999.0,  999.0,  999.0,   -5.2,  999.0,   -2.6,    5.6,    7.5,    7.1,  999.0,   10.5,  999.0,  999.0,  999.0,  999.0,  999.0,  999.0,  999.0,  999.0,  999.0,   55.0,   55.0,   55.0,   55.0,   55.1,  999.0,   55.0,  999.0,  999.0,   55.1,   55.1,   55.0,   55.0,   55.2,   55.1,  999.0,   55.2,  999.0,  999.0,   46.4,   55.1,  999.0,  999.0,  999.0,  999.0,  999.0,   55.5,  999.0,  999.0,  999.0,  999.0,  999.0,  999.0,  999.0,  999.0
2005/10/09 21:00,  999.0,   -0.0,   -1.4,  999.0,  999.0,  999.0,   -1.9,  999.0,  999.0,  999.0,  999.0,    1.5,  999.0,   -0.7,    3.3,    6.3,    6.2,  999.0,  999.0,  999.0,  999.0,  999.0,  999.0,  999.0,  999.0,  999.0,  999.0,  999.0,  999.0,   55.0,   55.1,   55.2,   52.9,   55.1,   55.1,   55.1,   55.2,   55.1,   55.1,   55.1,   55.2,   55.2,   55.2,   55.2,  999.0,   55.1,   55.3,   55.3,  999.0,   55.1,   55.1,  999.0,  999.0,   55.4,  999.0,  999.0,  999.0,  999.0,  999.0,  999.0,  999.0,  999.0,  999.0
2005/10/09 21:10,  999.0,   -1.7,   -1.1,   -1.6,  999.0,  999.0,  999.0,  999.0,  999.0,  999.0,  999.0,   -4.7,  999.0,  999.0,    6.6,    5.9,    6.4,    7.4,    7.9,    8.3,  999.0,  999.0,  999.0,  999.0,  999.0,  999.0,  999.0,   55.1,   55.1,   55.1,   55.1,   55.1,   55.1,   55.1,   55.1,   55.1,   55.2,   55.2,   55.3,   55.3,   55.2,   55.2,   55.2,   55.2,   55.4,   55.3,   55.5,   55.7,  999.0,  999.0,  999.0,  999.0,  999.0,  999.0,  999.0,  999.0,  999.0,  999.0,  999.0,  999.0,  999.0,  999.0,  999.0
2005/10/09 21:20,  999.0,    0.0,    0.2,   -3.3,   -3.3,  999.0,   -1.4,  999.0,   -7.9,   -6.0,  999.0,   -6.4,  999.0,    4.1,    2.2,    5.3,    6.0,    6.9,    7.8,  999.0,  999.0,  999.0,  999.0,  999.0,  999.0,  999.0,  999.0,   55.1,   55.0,   55.1,   55.0,   55.1,   55.1,   55.1,   55.2,   55.1,   55.1,   55.1,   55.1,   55.2,   55.2,   55.1,   55.1,   55.3,  999.0,   55.1,   52.2,   55.2,   49.1,  999.0,   55.5,  999.0,  999.0,  999.0,  999.0,  999.0,  999.0,  999.0,  999.0,  999.0,  999.0,  999.0,  999.0
2005/10/09 21:30,  999.0,   -2.5,  999.0,   -2.8,   -1.2,   -3.5,  999.0,  999.0,  999.0,  999.0,   -0.2,   -1.9,   -2.7,    1.9,  999.0,  999.0,  999.0,    7.4,  999.0,  999.0,  999.0,  999.0,  999.0,  999.0,  999.0,  999.0,  999.0,   55.1,   55.1,   55.2,   55.1,   55.1,   55.0,   55.1,   55.3,   55.2,   55.2,   55.3,   55.3,   55.3,   55.3,   55.4,   55.1,   18.5,   27.7,   27.9,   18.5,   18.6,  999.0,   18.4,    0.0,   -0.4,  999.0,  999.0,  999.0,  999.0,  999.0,  999.0,  999.0,  999.0,  999.0,  999.0,  999.0
2005/10/09 21:40,  999.0,   -1.7,  999.0,  999.0,  999.0,  999.0,  999.0,  999.0,  999.0,   -5.1,  999.0,   -0.5,   -0.7,  999.0,    7.1,    6.6,    6.6,    7.9,    9.2,  999.0,  999.0,  999.0,  999.0,  999.0,  999.0,  999.0,   18.3,   55.1,   33.0,   33.1,   44.1,   38.7,   40.5,   33.0,   48.3,   34.5,   38.6,   48.2,   45.9,   41.4,   46.0,   46.1,   55.4,   30.3,   29.8,   41.5,   27.6,   37.0,  999.0,  999.0,   27.8,  999.0,  999.0,  999.0,  999.0,  999.0,  999.0,  999.0,  999.0,  999.0,  999.0,  999.0,  999.0
2005/10/09 21:50,  999.0,   -5.1,  999.0,  999.0,  999.0,   -6.7,  999.0,   -1.4,  999.0,  999.0,   -2.7,   -4.0,   -1.3,    0.6,    3.6,    5.8,    6.5,  999.0,  999.0,  999.0,  999.0,  999.0,  999.0,  999.0,  999.0,  999.0,    9.1,    9.2,    9.1,   18.4,   27.5,   33.1,   33.0,   33.0,   33.1,   27.5,   33.0,   33.0,   34.5,   33.0,   33.0,   33.1,   41.5,   33.0,  999.0,  999.0,  999.0,  999.0,  999.0,  999.0,  999.0,   36.9,  999.0,   18.4,  999.0,  999.0,  999.0,  999.0,  999.0,  999.0,  999.0,  999.0,  999.0
2005/10/09 22:00,  999.0,   -1.2,    2.0,  999.0,   -0.5,   -4.0,  999.0,  999.0,    0.8,  999.0,  999.0,    0.6,    3.4,    3.2,   -1.5,   -8.2,   -3.9,   -3.8,   -5.2,   -1.4,  999.0,  999.0,  999.0,  999.0,  999.0,  999.0,  999.0,  999.0,  999.0,  -55.0,  -55.0,  999.0,  -55.0,  -55.0,  -55.0,  -18.3,  -18.3,  -18.3,  -55.1,  -18.3,  -18.3,  999.0,    0.0,  -18.4,  -18.3,  -55.1,  -36.8,  -36.7,  -36.9,  -27.4,  -27.5,  -54.7,  -55.1,  -27.8,  999.0,  999.0,  999.0,  999.0,  999.0,  999.0,  999.0,  999.0,  999.0
2005/10/09 22:10,  999.0,    1.8,    3.0,    1.4,    0.4,   -1.4,    0.9,    1.2,   -0.2,  999.0,    3.0,    3.3,   -1.1,   -4.2,   -4.5,   -7.3,   -8.7,  -10.8,  -10.1,   -9.3,  999.0,  999.0,  999.0,  999.0,  999.0,  999.0,  999.0,  999.0,  -45.8,  -48.2,  -48.1,  -48.2,  -44.1,  -49.5,  -45.9,  -49.5,  -49.6,  -48.2,  -55.1,  -44.1,  -45.9,  -55.1,  -36.7,  -49.7,  -55.4,  -41.6,  -48.3,  -46.1,  -41.5,  -44.1,  -46.1,  -55.5,  999.0,  999.0,  999.0,  999.0,  999.0,  999.0,  999.0,  999.0,  999.0,  999.0,  999.0
2005/10/09 22:20,  999.0,  999.0,    2.3,  999.0,  999.0,   -0.3,    0.7,    3.3,  999.0,  999.0,  999.0,    2.4,  999.0,   -6.3,   -5.4,   -8.5,  999.0,  -11.2,  -11.0,  999.0,  999.0,  999.0,  999.0,  999.0,  999.0,  999.0,  -55.0,  -55.0,  -55.1,  -55.1,  -55.1,  -55.1,  -55.1,  -55.1,  -55.1,  -55.1,  -55.1,  -55.1,  -55.1,  -55.2,  -55.2,  -55.2,  -55.1,  -55.1,  -55.2,  -55.3,  -55.2,  -55.4,  -55.4,  -55.3,  -55.5,  -55.4,  -55.4,  -55.4,  999.0,  -55.9,  999.0,  999.0,  999.0,  999.0,  999.0,  999.0,  999.0
2005/10/09 22:30,  999.0,    3.5,  999.0,  999.0,    2.6,  999.0,   -0.5,  999.0,    1.5,  999.0,  999.0,  999.0,    1.7,  999.0,  999.0,   -7.0,  -11.6,  -11.2,  999.0,  999.0,  999.0,  999.0,  999.0,  999.0,  999.0,  999.0,  -55.0,  -55.1,  -55.1,  -55.1,  -55.1,  -55.1,  -55.1,  -55.1,  -55.1,  -55.1,  -55.1,  -55.3,  -55.1,  -55.2,  -55.2,  -55.1,  -55.1,  -55.0,  -55.2,  -55.2,  -55.4,  -55.3,  -55.3,  -55.3,  999.0,  -55.2,  -55.4,  999.0,  999.0,  999.0,  999.0,  999.0,  999.0,  999.0,  999.0,  999.0,  999.0
2005/10/09 22:40,  999.0,  999.0,    2.6,  999.0,    1.7,  999.0,   -0.7,   -2.4,   -3.2,  999.0,   -5.2,  999.0,  999.0,   -7.0,   -7.7,   -8.5,  -10.3,  -10.5,  999.0,   -9.1,  999.0,  999.0,  999.0,  999.0,  999.0,  999.0,  999.0,  -55.2,  -55.2,  -55.1,  -55.1,  -41.4,  -46.0,  -55.1,  -46.0,  -46.0,  -55.1,  -48.3,  -46.0,  -46.0,  -48.2,  -48.3,  -46.0,  -48.3,  -48.4,  -41.4,  -46.1,  -46.0,  -46.1,  999.0,  -46.1,  -46.0,  999.0,  -55.4,  -41.7,  999.0,  999.0,  999.0,  999.0,  999.0,  999.0,  999.0,  999.0
2005/10/09 22:50,  999.0,    2.6,  999.0,  999.0,  999.0,  999.0,  999.0,   -1.9,   -1.3,    0.9,   -2.0,   -4.5,   -3.5,   -6.2,   -8.0,   -7.4,   -8.8,  -11.0,  -10.5,  999.0,  999.0,  999.0,  999.0,  999.0,  999.0,  999.0,  999.0,  -55.1,  -55.1,  -55.1,  -55.1,  -55.1,  -55.1,  -55.1,  -55.1,  -55.1,  -55.1,  -55.1,  -55.1,  -55.2,  -55.1,  -55.2,  -55.2,  -55.2,  -55.1,  -55.2,  -55.3,  -55.3,  -55.2,  -55.3,  -55.4,  -55.5,  -55.3,  -55.0,  -55.7,  999.0,  999.0,  -55.1,  999.0,  999.0,  999.0,  999.0,  999.0
2005/10/09 23:00,  999.0,    3.2,    1.9,    4.0,    1.2,    1.5,   -1.3,  999.0,  999.0,    3.7,   -0.7,  999.0,    0.4,  999.0,   -8.0,   -8.7,  999.0,  -11.0,  -10.5,  999.0,  999.0,  999.0,  999.0,  999.0,  999.0,  999.0,  -55.1,  -55.0,  -55.0,  -55.1,  -55.1,  -55.1,  -55.1,  -55.1,  -55.1,  -55.1,  -55.1,  -55.1,  -55.1,  -55.0,  -55.1,  -55.1,  -55.3,  -55.3,  -55.1,  -55.4,  -55.3,  -55.3,  999.0,  -55.3,  -55.3,  999.0,  -55.5,  -55.5,  999.0,  999.0,  999.0,  999.0,  999.0,  999.0,  999.0,  999.0,  999.0
2005/10/09 23:10,  999.0,   -1.4,   -1.6,    1.0,    0.0,  999.0,   -1.8,  999.0,  999.0,  999.0,    4.2,    2.2,   -2.7,   -5.3,   -8.5,  999.0,  -10.9,  999.0,  999.0,  999.0,  999.0,  999.0,  999.0,  999.0,  999.0,  999.0,  999.0,  -55.1,  -55.1,  -55.1,  -55.1,  -55.1,  -55.1,  -55.1,  -55.1,  -55.1,  -55.2,  -52.9,  -55.1,  -55.3,  -55.2,  -55.2,  -55.2,  -55.2,  -55.2,  -55.2,  -55.2,  -55.3,  -55.4,  -55.5,  -55.0,  -55.3,  -55.5,  -55.5,  -55.3,  999.0,  999.0,  -55.4,  999.0,  999.0,  999.0,  999.0,  999.0
2005/10/09 23:20,  999.0,   -0.2,  999.0,  999.0,   -0.0,   -0.5,   -2.1,  999.0,  999.0,    2.4,  999.0,   -0.9,    0.7,  999.0,   -4.7,   -7.9,  -10.3,  -10.8,  999.0,  999.0,  999.0,  999.0,  999.0,  999.0,  999.0,  999.0,  -55.0,  -55.0,  -55.1,  -55.1,  -55.1,  -55.1,  -55.1,  -55.1,  -55.1,  -55.1,  -55.2,  -55.1,  -55.1,  -55.2,  -55.2,  -55.1,  -55.2,  -55.3,  -55.3,  -55.3,  -55.3,  -55.2,  -55.4,  -55.4,  -55.3,  -55.4,  -55.5,  999.0,  -55.5,  -55.8,  999.0,  999.0,  999.0,  999.0,  999.0,  999.0,  999.0
2005/10/09 23:30,  999.0,  999.0,  999.0,  999.0,   -0.1,   -0.6,   -1.4,    0.1,  999.0,  999.0,    4.2,  999.0,    3.4,  999.0,  999.0,   -7.2,   -9.5,  -10.4,  -10.9,  -10.5,  999.0,  999.0,  999.0,  999.0,  999.0,  -54.9,  -54.9,  -54.9,  -55.0,  -55.0,  -55.0,  -55.0,  -55.1,  -55.1,  -55.0,  -55.1,  -55.0,  -55.1,  -55.0,  -55.1,  -55.1,  -55.0,  -55.1,  -55.2,  -55.1,  -55.2,  -55.4,  -55.1,  -55.2,  -55.2,  -55.4,  -55.3,  -55.4,  999.0,  -55.2,  999.0,  999.0,  -55.5,  999.0,  999.0,  999.0,  999.0,  999.0
2005/10/09 23:40,  999.0,  999.0,    3.5,    2.1,    0.6,   -1.9,    0.1,   -1.1,    1.1,    0.1,    2.3,    4.1,    1.5,  999.0,   -1.8,   -7.8,   -8.8,  -10.0,  -10.8,  -10.6,   -9.8,  999.0,  999.0,  999.0,  999.0,  999.0,  999.0,  999.0,  999.0,  999.0,  999.0,  999.0,  999.0,  999.0,  -17.1,  -17.5,  -17.6,  -21.5,  999.0,  999.0,  999.0,  -55.4,  -55.1,  -55.3,  -55.4,  -55.4,  -55.2,  -55.3,  -55.2,  -55.0,  999.0,  -55.0,  999.0,  999.0,  999.0,  999.0,  -46.4,  999.0,  999.0,  999.0,  999.0,  999.0,  999.0
2005/10/09 23:50,  999.0,  999.0,  999.0,    0.9,   -0.4,   -1.3,  999.0,   -2.9,  999.0,  999.0,    1.3,   -0.9,    0.0,   -1.6,   -1.1,   -5.7,   -7.7,  999.0,  -10.9,  -10.5,  999.0,  999.0,  999.0,  999.0,  999.0,  999.0,  999.0,  999.0,  999.0,  -54.9,  999.0,  999.0,  -55.0,  -27.6,  -21.7,  -32.8,  -18.0,  -26.0,  -26.0,  -35.7,  999.0,  999.0,  999.0,  -55.1,  -55.2,  999.0,  -48.3,  -46.1,  -55.3,  -55.3,  -55.5,  999.0,  999.0,  999.0,  999.0,  999.0,  999.0,  999.0,  999.0,  999.0,  999.0,  999.0,  999.0
